GEFSMA_prec_meanprecacc_168.txt.gz
Total_Precipitation_Accumulation
2.00 2.03 1.88 1.91 1.90 2.11 2.53 2.98 2.99 3.20 3.24 2.94 2.52 2.35 2.41 2.27 2.20 2.10 1.72 1.79 1.98 2.04 2.03 2.01 2.00 1.94 1.95 1.87 1.66 1.51 1.30 1.18 1.01 0.81 0.65 0.57 0.60 0.54 0.42 0.32 0.23 0.17 0.15
1.80 1.76 1.74 1.87 1.92 1.90 2.06 2.45 2.69 3.01 3.04 2.73 2.29 2.14 2.13 2.17 2.04 2.01 1.75 1.77 1.88 1.76 1.79 1.99 2.18 2.22 2.15 1.99 1.84 1.70 1.50 1.34 1.14 0.88 0.76 0.70 0.54 0.51 0.51 0.39 0.29 0.20 0.15
1.49 1.49 1.58 1.55 1.60 1.60 1.64 1.79 2.04 2.31 2.33 2.25 2.19 2.17 2.11 2.02 1.84 1.81 1.85 1.78 1.57 1.61 1.68 1.80 1.97 2.08 2.25 2.33 2.23 2.01 1.76 1.48 1.23 0.97 0.76 0.62 0.52 0.41 0.36 0.36 0.36 0.29 0.18
0.98 1.07 1.13 1.12 1.10 1.03 1.12 1.35 1.46 1.66 1.91 2.07 2.18 2.10 2.06 2.09 1.89 1.82 1.78 1.75 1.72 1.49 1.68 1.75 1.74 1.80 2.05 2.31 2.39 2.45 2.15 1.74 1.43 1.18 0.92 0.68 0.55 0.46 0.36 0.32 0.37 0.36 0.25
0.80 0.87 0.96 1.02 0.82 0.80 0.84 0.82 1.11 1.31 1.54 1.68 1.54 1.69 1.65 1.69 1.62 1.44 1.45 1.34 1.50 1.47 1.54 1.56 1.61 1.59 1.80 2.24 2.62 2.86 2.70 2.20 1.72 1.44 1.28 1.04 0.85 0.65 0.49 0.40 0.35 0.34 0.29
0.85 0.92 0.83 0.79 0.68 0.79 0.91 1.00 1.23 1.21 1.20 1.29 1.17 1.40 1.34 1.24 1.25 1.19 1.08 1.13 1.17 1.06 1.18 1.32 1.37 1.22 1.50 1.98 2.41 2.74 2.85 2.65 2.20 1.78 1.65 1.51 1.36 1.02 0.71 0.55 0.45 0.39 0.34
0.97 0.99 0.83 0.97 0.84 0.84 0.88 0.90 1.03 1.06 0.98 0.94 1.27 1.49 1.26 0.98 0.95 0.85 0.83 0.96 1.02 1.03 1.19 1.33 1.33 1.33 1.23 1.29 1.44 1.88 2.39 2.80 2.77 2.30 1.99 1.84 1.75 1.38 0.92 0.76 0.68 0.53 0.47
0.91 0.81 0.95 0.85 0.86 0.95 0.95 0.96 1.04 1.07 0.95 0.89 1.19 1.50 1.36 1.39 1.28 0.70 0.78 0.88 0.93 1.08 1.13 1.12 1.21 1.37 1.22 1.27 0.87 1.01 1.60 2.08 2.62 2.60 2.22 1.95 1.89 1.65 1.20 0.97 0.83 0.73 0.64
0.85 0.86 0.84 0.83 0.99 0.82 0.99 1.12 1.08 1.08 1.06 0.95 0.96 1.19 1.24 1.28 1.18 0.98 0.81 0.75 0.83 1.04 1.08 1.12 1.08 1.21 1.28 1.41 1.30 0.93 1.10 1.31 1.89 2.52 2.62 2.16 1.79 1.59 1.41 1.28 1.10 0.87 0.77
0.90 0.89 0.84 0.90 0.99 0.86 1.12 0.89 0.92 1.07 1.10 0.95 0.89 0.77 0.78 0.95 1.09 1.14 0.99 0.78 0.79 0.87 0.91 0.87 0.91 1.09 1.16 1.17 1.19 0.82 0.64 0.78 1.34 2.08 2.50 2.45 2.09 1.74 1.51 1.46 1.54 1.40 1.11
1.04 0.90 0.91 0.96 0.93 0.87 0.96 0.99 1.18 1.07 1.03 0.98 0.91 0.83 0.85 0.82 0.72 0.86 1.01 1.01 0.96 0.73 0.65 0.72 0.83 0.98 1.02 1.07 1.22 0.91 0.62 0.68 0.87 1.25 1.65 1.96 2.05 1.87 1.65 1.69 2.01 2.19 1.98
1.08 1.03 1.06 1.05 0.96 0.89 0.92 0.95 1.06 1.07 1.13 1.17 1.01 0.86 0.88 0.81 0.73 0.81 0.78 0.79 0.87 0.70 0.61 0.63 0.71 0.81 0.88 1.02 1.00 0.79 0.76 0.85 0.87 0.93 1.04 1.24 1.50 1.62 1.60 1.69 1.96 2.32 2.52
0.96 0.99 1.03 1.11 1.03 1.00 0.98 1.02 1.01 0.99 1.07 1.13 1.01 0.88 0.79 0.68 0.72 0.79 0.84 0.73 0.71 0.58 0.63 0.58 0.61 0.65 0.65 0.89 1.12 1.10 0.94 0.98 0.93 0.88 0.89 0.92 1.04 1.23 1.27 1.34 1.56 1.90 2.24
1.03 0.99 1.02 1.00 0.99 1.00 0.98 1.19 1.01 0.92 0.98 0.96 0.88 1.02 0.94 0.66 0.66 0.77 0.85 0.93 0.91 0.80 0.80 0.72 0.75 0.79 0.77 0.87 1.08 1.20 1.00 0.96 0.82 0.73 0.72 0.72 0.77 0.88 0.99 1.04 1.11 1.22 1.40
1.14 1.05 0.97 0.95 0.99 1.03 1.07 1.17 1.08 1.05 1.09 0.97 0.90 1.01 0.94 0.76 0.69 0.63 0.77 0.97 1.14 1.10 1.02 0.92 0.95 0.99 0.94 0.96 1.03 0.93 0.97 0.99 0.88 0.77 0.67 0.62 0.62 0.62 0.66 0.73 0.79 0.80 0.80
0.96 1.00 0.97 0.91 0.97 1.05 1.13 1.18 1.17 1.24 1.32 1.20 1.07 1.08 1.01 0.89 0.89 0.74 0.75 0.90 1.08 1.20 1.19 0.90 0.94 0.95 1.01 0.91 1.02 0.95 0.99 1.02 0.87 0.77 0.67 0.61 0.60 0.59 0.58 0.58 0.63 0.69 0.70
0.99 0.99 0.98 0.96 0.97 1.02 1.11 1.16 1.12 1.25 1.39 1.43 1.27 1.19 1.14 1.10 1.08 0.94 0.94 1.00 1.06 1.22 1.30 1.09 1.02 1.12 1.18 1.12 1.11 1.07 1.00 0.99 0.90 0.86 0.72 0.65 0.60 0.57 0.58 0.57 0.57 0.57 0.62
1.13 1.13 1.13 1.13 1.07 1.03 1.09 1.07 1.01 1.09 1.27 1.46 1.62 1.67 1.47 1.34 1.31 1.18 1.16 1.14 1.13 1.21 1.30 1.31 1.24 1.27 1.27 1.26 1.22 1.05 0.88 0.83 0.86 0.92 0.81 0.73 0.70 0.64 0.61 0.59 0.58 0.56 0.56
1.33 1.36 1.39 1.33 1.29 1.28 1.25 1.20 1.17 1.20 1.24 1.31 1.50 1.68 1.66 1.68 1.52 1.43 1.35 1.28 1.22 1.16 1.26 1.28 1.24 1.36 1.41 1.39 1.24 0.96 0.86 0.88 0.81 0.92 0.89 0.72 0.64 0.61 0.57 0.52 0.47 0.45 0.44
1.49 1.53 1.57 1.53 1.49 1.50 1.47 1.42 1.37 1.36 1.36 1.37 1.40 1.46 1.55 1.70 1.64 1.57 1.47 1.42 1.39 1.38 1.38 1.34 1.34 1.44 1.62 1.66 1.44 1.11 0.96 0.93 0.86 0.74 0.78 0.71 0.66 0.61 0.56 0.50 0.46 0.44 0.43
1.67 1.79 1.76 1.68 1.65 1.66 1.53 1.56 1.67 1.67 1.69 1.55 1.43 1.37 1.35 1.48 1.55 1.55 1.39 1.36 1.44 1.49 1.49 1.47 1.48 1.57 1.68 1.77 1.51 1.25 1.08 1.00 0.95 0.82 0.73 0.65 0.63 0.60 0.61 0.62 0.59 0.52 0.48
1.90 1.85 1.80 1.79 1.76 1.62 1.72 1.73 1.64 1.67 1.82 1.82 1.69 1.58 1.44 1.35 1.35 1.38 1.42 1.44 1.45 1.46 1.51 1.56 1.56 1.61 1.68 1.73 1.78 1.58 1.33 1.10 0.96 0.84 0.81 0.73 0.67 0.63 0.55 0.51 0.60 0.58 0.54
1.83 1.76 1.78 1.81 1.78 1.81 1.76 1.57 1.43 1.42 1.50 1.58 1.64 1.61 1.40 1.27 1.32 1.28 1.42 1.46 1.39 1.32 1.28 1.34 1.40 1.47 1.76 1.94 2.08 1.79 1.52 1.31 1.09 0.96 0.89 0.77 0.71 0.65 0.57 0.55 0.65 0.58 0.53
1.61 1.58 1.58 1.50 1.47 1.46 1.45 1.28 1.24 1.21 1.21 1.18 1.28 1.37 1.35 1.25 1.22 1.22 1.16 1.07 1.02 1.03 1.00 0.97 1.04 1.23 1.52 1.93 2.12 2.11 2.00 1.76 1.53 1.25 1.01 0.85 0.71 0.66 0.63 0.58 0.66 0.63 0.57
1.38 1.27 1.21 1.21 1.21 1.26 1.36 1.20 1.14 1.13 1.16 1.09 1.07 1.08 1.08 1.00 1.03 0.97 0.91 0.82 0.78 0.78 0.78 0.80 0.83 0.98 1.19 1.47 1.81 1.97 1.91 1.69 1.43 1.15 0.93 0.79 0.70 0.67 0.64 0.58 0.59 0.67 0.61
1.29 1.26 1.19 1.14 1.14 1.15 1.26 1.10 1.04 1.05 1.10 1.07 1.06 1.09 1.17 1.01 0.89 0.73 0.71 0.75 0.67 0.64 0.67 0.66 0.66 0.71 0.81 1.00 1.34 1.47 1.46 1.44 1.27 1.04 0.78 0.70 0.63 0.68 0.64 0.54 0.48 0.50 0.53

GEFSMA_prec_meanprecacc_174.txt.gz
Total_Precipitation_Accumulation
2.03 2.06 1.90 1.93 1.92 2.13 2.55 3.01 3.01 3.23 3.27 2.98 2.56 2.39 2.43 2.29 2.24 2.16 1.74 1.81 2.00 2.06 2.06 2.03 2.01 1.95 1.95 1.88 1.69 1.52 1.31 1.20 1.03 0.82 0.66 0.59 0.61 0.55 0.42 0.32 0.24 0.18 0.16
1.83 1.79 1.75 1.89 1.94 1.92 2.08 2.48 2.72 3.04 3.07 2.77 2.33 2.16 2.16 2.20 2.08 2.05 1.77 1.79 1.90 1.79 1.81 2.02 2.20 2.23 2.17 2.02 1.88 1.72 1.51 1.36 1.16 0.89 0.77 0.71 0.56 0.52 0.52 0.40 0.30 0.21 0.16
1.51 1.51 1.60 1.57 1.62 1.62 1.67 1.83 2.08 2.36 2.38 2.29 2.23 2.20 2.15 2.05 1.88 1.85 1.90 1.82 1.60 1.64 1.71 1.83 2.00 2.11 2.28 2.36 2.27 2.04 1.78 1.50 1.24 0.97 0.76 0.64 0.53 0.42 0.37 0.37 0.37 0.29 0.19
1.01 1.08 1.15 1.14 1.11 1.05 1.15 1.41 1.52 1.73 1.97 2.11 2.23 2.14 2.10 2.13 1.94 1.87 1.84 1.84 1.79 1.53 1.71 1.77 1.77 1.83 2.08 2.34 2.43 2.49 2.18 1.77 1.45 1.20 0.93 0.69 0.56 0.47 0.36 0.33 0.38 0.37 0.26
0.85 0.90 0.97 1.04 0.84 0.84 0.88 0.88 1.20 1.39 1.61 1.73 1.58 1.74 1.70 1.75 1.67 1.49 1.50 1.38 1.54 1.51 1.58 1.59 1.64 1.63 1.83 2.27 2.67 2.91 2.73 2.23 1.74 1.45 1.29 1.05 0.85 0.66 0.49 0.40 0.35 0.35 0.30
0.90 0.96 0.86 0.82 0.72 0.84 0.98 1.09 1.33 1.29 1.26 1.35 1.23 1.47 1.40 1.31 1.32 1.25 1.14 1.17 1.21 1.09 1.23 1.38 1.43 1.28 1.52 2.01 2.45 2.78 2.88 2.69 2.25 1.82 1.67 1.53 1.37 1.03 0.72 0.56 0.45 0.39 0.34
1.02 1.04 0.87 1.03 0.89 0.90 0.93 0.97 1.09 1.13 1.04 1.01 1.37 1.58 1.33 1.06 1.01 0.90 0.88 1.00 1.06 1.08 1.26 1.42 1.40 1.36 1.24 1.31 1.47 1.92 2.44 2.86 2.84 2.35 2.03 1.87 1.77 1.40 0.93 0.76 0.68 0.54 0.48
0.99 0.88 1.03 0.90 0.91 1.00 1.03 1.03 1.12 1.15 1.02 0.98 1.30 1.60 1.43 1.45 1.34 0.76 0.83 0.91 0.98 1.15 1.21 1.19 1.29 1.43 1.27 1.32 0.92 1.06 1.67 2.16 2.69 2.67 2.27 1.99 1.92 1.67 1.22 0.99 0.84 0.73 0.65
0.94 0.95 0.93 0.89 1.04 0.86 1.04 1.17 1.16 1.20 1.16 1.04 1.06 1.29 1.32 1.33 1.22 1.02 0.85 0.79 0.90 1.12 1.15 1.20 1.16 1.30 1.37 1.49 1.38 1.00 1.17 1.37 1.94 2.58 2.66 2.20 1.82 1.61 1.44 1.30 1.12 0.88 0.78
0.98 0.96 0.89 0.95 1.03 0.89 1.16 0.93 0.98 1.16 1.21 1.06 0.98 0.85 0.87 1.04 1.16 1.18 1.02 0.84 0.86 0.96 1.00 0.96 1.00 1.18 1.23 1.24 1.25 0.87 0.70 0.81 1.37 2.13 2.56 2.51 2.12 1.76 1.52 1.48 1.56 1.42 1.12
1.08 0.95 0.96 1.01 0.98 0.91 1.01 1.04 1.24 1.15 1.11 1.06 1.00 0.93 0.94 0.90 0.79 0.91 1.05 1.05 1.01 0.79 0.71 0.78 0.89 1.03 1.07 1.12 1.28 0.96 0.67 0.72 0.90 1.28 1.68 2.01 2.09 1.91 1.67 1.71 2.03 2.22 2.01
1.11 1.06 1.10 1.10 1.00 0.92 0.96 1.00 1.11 1.12 1.18 1.24 1.08 0.95 0.97 0.90 0.79 0.87 0.83 0.82 0.89 0.72 0.64 0.67 0.75 0.85 0.92 1.07 1.05 0.83 0.81 0.91 0.94 0.97 1.07 1.27 1.55 1.66 1.64 1.74 2.00 2.38 2.58
0.99 1.02 1.06 1.15 1.08 1.04 1.01 1.06 1.04 1.02 1.11 1.18 1.06 0.93 0.87 0.76 0.80 0.87 0.91 0.78 0.75 0.61 0.65 0.61 0.65 0.71 0.71 0.97 1.20 1.16 1.02 1.08 1.03 0.97 0.96 0.97 1.08 1.28 1.34 1.40 1.62 1.96 2.32
1.06 1.02 1.06 1.04 1.04 1.04 1.02 1.24 1.06 0.96 1.02 1.01 0.92 1.07 1.01 0.73 0.73 0.84 0.94 1.02 0.98 0.84 0.84 0.77 0.79 0.85 0.85 0.99 1.23 1.35 1.12 1.10 0.96 0.86 0.83 0.81 0.83 0.92 1.02 1.09 1.16 1.28 1.46
1.17 1.08 1.00 0.98 1.02 1.08 1.13 1.22 1.13 1.12 1.16 1.03 0.95 1.06 1.00 0.82 0.75 0.70 0.86 1.09 1.24 1.17 1.07 0.97 1.00 1.05 1.03 1.09 1.18 1.07 1.09 1.13 1.03 0.91 0.80 0.74 0.71 0.69 0.70 0.76 0.82 0.84 0.84
1.00 1.03 1.00 0.94 1.01 1.10 1.19 1.26 1.26 1.35 1.42 1.28 1.14 1.14 1.07 0.95 0.97 0.81 0.84 1.02 1.20 1.33 1.31 0.97 0.99 1.01 1.08 1.01 1.13 1.05 1.10 1.13 0.99 0.90 0.78 0.73 0.70 0.68 0.66 0.65 0.68 0.73 0.74
1.00 1.00 1.01 1.00 1.02 1.08 1.18 1.23 1.20 1.37 1.51 1.54 1.36 1.27 1.22 1.18 1.16 1.03 1.04 1.11 1.18 1.33 1.40 1.15 1.07 1.18 1.25 1.21 1.21 1.17 1.08 1.10 1.04 1.00 0.84 0.77 0.71 0.67 0.66 0.65 0.64 0.64 0.69
1.14 1.15 1.15 1.17 1.13 1.10 1.16 1.15 1.09 1.16 1.35 1.55 1.72 1.78 1.57 1.44 1.39 1.26 1.25 1.23 1.22 1.30 1.37 1.36 1.29 1.32 1.33 1.33 1.31 1.14 0.95 0.91 0.95 1.03 0.93 0.84 0.80 0.74 0.69 0.66 0.65 0.64 0.63
1.35 1.37 1.41 1.36 1.34 1.34 1.30 1.25 1.23 1.27 1.34 1.41 1.60 1.78 1.77 1.80 1.63 1.54 1.46 1.37 1.32 1.26 1.36 1.36 1.31 1.43 1.47 1.47 1.33 1.04 0.93 0.95 0.88 1.01 0.99 0.84 0.75 0.73 0.68 0.62 0.56 0.54 0.54
1.50 1.55 1.60 1.55 1.52 1.54 1.51 1.46 1.42 1.41 1.42 1.42 1.45 1.51 1.62 1.81 1.77 1.71 1.61 1.56 1.53 1.52 1.54 1.50 1.47 1.56 1.74 1.78 1.54 1.20 1.05 1.02 0.96 0.84 0.89 0.81 0.75 0.71 0.67 0.60 0.56 0.53 0.51
1.70 1.81 1.79 1.70 1.67 1.67 1.55 1.59 1.70 1.70 1.72 1.58 1.48 1.42 1.41 1.58 1.66 1.67 1.52 1.52 1.61 1.65 1.65 1.62 1.62 1.70 1.79 1.88 1.60 1.33 1.16 1.09 1.04 0.92 0.82 0.73 0.69 0.68 0.71 0.74 0.71 0.62 0.55
1.94 1.87 1.81 1.80 1.78 1.63 1.74 1.75 1.66 1.68 1.83 1.84 1.73 1.63 1.51 1.42 1.43 1.47 1.53 1.55 1.56 1.56 1.60 1.64 1.63 1.68 1.74 1.79 1.84 1.65 1.40 1.18 1.07 0.96 0.91 0.80 0.73 0.69 0.62 0.58 0.68 0.66 0.61
1.86 1.77 1.79 1.83 1.79 1.83 1.77 1.58 1.45 1.44 1.51 1.61 1.68 1.66 1.46 1.33 1.38 1.35 1.50 1.54 1.46 1.39 1.34 1.39 1.45 1.51 1.81 1.99 2.15 1.89 1.63 1.43 1.21 1.06 0.97 0.84 0.76 0.70 0.61 0.59 0.69 0.61 0.57
1.64 1.60 1.60 1.53 1.49 1.47 1.48 1.31 1.26 1.24 1.24 1.22 1.32 1.42 1.39 1.30 1.29 1.31 1.24 1.15 1.10 1.10 1.07 1.01 1.08 1.28 1.58 1.99 2.20 2.18 2.09 1.85 1.62 1.30 1.06 0.90 0.75 0.69 0.66 0.61 0.69 0.66 0.60
1.42 1.30 1.25 1.25 1.25 1.30 1.41 1.24 1.18 1.17 1.21 1.12 1.11 1.12 1.12 1.04 1.08 1.03 0.96 0.87 0.82 0.83 0.85 0.88 0.91 1.06 1.28 1.55 1.89 2.04 1.98 1.75 1.48 1.18 0.96 0.83 0.73 0.71 0.66 0.60 0.62 0.70 0.64
1.34 1.31 1.24 1.20 1.19 1.21 1.32 1.16 1.10 1.10 1.15 1.11 1.10 1.13 1.22 1.06 0.93 0.77 0.75 0.77 0.70 0.67 0.71 0.72 0.74 0.80 0.91 1.10 1.44 1.56 1.56 1.53 1.35 1.12 0.84 0.75 0.68 0.73 0.68 0.57 0.51 0.52 0.56

GEFSMA_prec_meanprecacc_180.txt.gz
Total_Precipitation_Accumulation
2.03 2.06 1.91 1.95 1.96 2.16 2.58 3.03 3.03 3.24 3.29 3.00 2.59 2.42 2.45 2.31 2.26 2.18 1.76 1.84 2.05 2.11 2.11 2.09 2.06 1.99 1.99 1.92 1.72 1.55 1.34 1.22 1.05 0.84 0.67 0.60 0.63 0.57 0.44 0.35 0.26 0.20 0.18
1.83 1.80 1.76 1.91 1.98 1.96 2.13 2.52 2.74 3.05 3.08 2.79 2.35 2.19 2.18 2.22 2.10 2.08 1.79 1.81 1.95 1.83 1.85 2.07 2.27 2.31 2.24 2.10 1.95 1.78 1.56 1.40 1.20 0.92 0.78 0.72 0.58 0.54 0.55 0.43 0.32 0.23 0.18
1.52 1.52 1.60 1.58 1.65 1.65 1.70 1.87 2.11 2.39 2.40 2.31 2.25 2.22 2.17 2.07 1.90 1.88 1.93 1.85 1.62 1.67 1.76 1.89 2.07 2.18 2.34 2.44 2.34 2.11 1.85 1.56 1.29 0.99 0.78 0.66 0.56 0.44 0.39 0.39 0.39 0.31 0.20
1.03 1.10 1.17 1.15 1.13 1.07 1.18 1.44 1.56 1.76 2.00 2.14 2.25 2.16 2.11 2.15 1.96 1.89 1.87 1.86 1.81 1.54 1.75 1.84 1.83 1.88 2.15 2.42 2.50 2.56 2.23 1.82 1.49 1.24 0.96 0.72 0.58 0.48 0.37 0.34 0.39 0.38 0.27
0.90 0.96 1.03 1.10 0.90 0.89 0.92 0.91 1.23 1.41 1.64 1.76 1.61 1.76 1.72 1.77 1.70 1.51 1.52 1.40 1.57 1.53 1.61 1.62 1.70 1.68 1.89 2.37 2.78 3.01 2.80 2.29 1.81 1.51 1.33 1.08 0.87 0.67 0.50 0.41 0.37 0.35 0.30
0.97 1.05 0.94 0.91 0.80 0.91 1.04 1.15 1.38 1.32 1.28 1.39 1.27 1.50 1.42 1.32 1.34 1.28 1.17 1.20 1.24 1.12 1.27 1.41 1.47 1.32 1.58 2.08 2.55 2.89 2.99 2.79 2.33 1.87 1.71 1.58 1.42 1.06 0.74 0.56 0.45 0.40 0.35
1.11 1.13 0.95 1.11 0.99 0.97 1.01 1.05 1.17 1.18 1.08 1.06 1.43 1.63 1.37 1.07 1.03 0.93 0.90 1.02 1.08 1.11 1.30 1.46 1.44 1.39 1.27 1.35 1.53 2.02 2.56 2.98 2.96 2.45 2.09 1.93 1.82 1.43 0.95 0.78 0.70 0.56 0.49
1.07 0.97 1.11 0.99 1.00 1.07 1.10 1.13 1.21 1.21 1.08 1.05 1.35 1.67 1.48 1.47 1.35 0.76 0.84 0.94 1.00 1.18 1.24 1.23 1.33 1.47 1.30 1.37 0.97 1.12 1.75 2.28 2.83 2.79 2.38 2.07 1.98 1.71 1.26 1.01 0.87 0.76 0.67
1.01 1.03 1.01 0.98 1.11 0.92 1.10 1.25 1.23 1.26 1.22 1.11 1.12 1.36 1.39 1.36 1.24 1.03 0.85 0.81 0.92 1.14 1.17 1.22 1.20 1.33 1.42 1.54 1.43 1.05 1.23 1.45 2.06 2.72 2.80 2.32 1.92 1.69 1.50 1.35 1.16 0.91 0.80
1.03 1.01 0.96 1.04 1.13 0.97 1.21 1.00 1.05 1.22 1.29 1.14 1.07 0.94 0.94 1.09 1.21 1.21 1.04 0.85 0.87 0.97 1.01 0.98 1.02 1.21 1.26 1.27 1.29 0.92 0.74 0.85 1.44 2.24 2.69 2.65 2.25 1.85 1.60 1.55 1.63 1.49 1.16
1.12 0.99 1.01 1.07 1.07 1.00 1.07 1.10 1.31 1.22 1.18 1.14 1.11 1.04 1.03 0.97 0.83 0.95 1.08 1.08 1.03 0.81 0.73 0.80 0.91 1.05 1.10 1.16 1.32 0.99 0.72 0.77 0.96 1.34 1.78 2.12 2.21 2.03 1.78 1.82 2.13 2.33 2.10
1.14 1.09 1.14 1.14 1.08 1.00 1.02 1.04 1.15 1.16 1.22 1.28 1.14 1.02 1.05 0.98 0.88 0.93 0.87 0.85 0.92 0.74 0.65 0.69 0.77 0.87 0.95 1.11 1.09 0.87 0.87 0.99 1.03 1.07 1.15 1.34 1.63 1.77 1.76 1.85 2.12 2.51 2.71
1.01 1.05 1.12 1.21 1.15 1.12 1.07 1.11 1.09 1.07 1.16 1.22 1.10 0.97 0.92 0.82 0.87 0.95 0.96 0.82 0.78 0.62 0.67 0.62 0.66 0.72 0.73 1.00 1.24 1.23 1.09 1.17 1.13 1.08 1.07 1.06 1.17 1.37 1.45 1.52 1.75 2.10 2.44
1.10 1.07 1.10 1.10 1.10 1.11 1.10 1.30 1.11 1.01 1.08 1.06 0.97 1.12 1.06 0.79 0.80 0.91 1.00 1.08 1.02 0.86 0.85 0.78 0.81 0.87 0.88 1.01 1.26 1.41 1.19 1.18 1.06 0.96 0.93 0.92 0.94 1.03 1.13 1.20 1.28 1.40 1.57
1.20 1.11 1.03 1.02 1.06 1.14 1.21 1.29 1.18 1.17 1.21 1.07 1.00 1.11 1.05 0.86 0.81 0.76 0.92 1.15 1.30 1.21 1.09 1.00 1.03 1.08 1.06 1.12 1.22 1.11 1.13 1.20 1.11 1.00 0.91 0.86 0.84 0.81 0.81 0.87 0.92 0.94 0.94
1.04 1.07 1.03 0.97 1.03 1.13 1.22 1.29 1.30 1.40 1.46 1.31 1.19 1.19 1.11 1.00 1.02 0.87 0.91 1.09 1.26 1.39 1.35 1.01 1.02 1.04 1.13 1.05 1.18 1.10 1.14 1.19 1.07 0.98 0.88 0.84 0.81 0.79 0.77 0.77 0.81 0.85 0.86
1.02 1.04 1.05 1.04 1.05 1.10 1.20 1.25 1.21 1.40 1.54 1.57 1.40 1.32 1.27 1.25 1.24 1.11 1.12 1.19 1.25 1.41 1.45 1.21 1.12 1.21 1.29 1.25 1.26 1.22 1.15 1.16 1.09 1.07 0.92 0.85 0.81 0.77 0.78 0.77 0.77 0.78 0.81
1.15 1.16 1.17 1.20 1.16 1.14 1.21 1.18 1.11 1.19 1.38 1.59 1.77 1.82 1.63 1.51 1.47 1.34 1.33 1.29 1.29 1.38 1.43 1.40 1.33 1.36 1.36 1.35 1.34 1.17 0.99 0.95 1.00 1.09 1.00 0.92 0.88 0.83 0.79 0.77 0.78 0.77 0.78
1.37 1.39 1.42 1.38 1.36 1.37 1.33 1.27 1.25 1.29 1.38 1.44 1.64 1.83 1.83 1.86 1.68 1.59 1.51 1.44 1.39 1.34 1.42 1.41 1.35 1.47 1.52 1.51 1.37 1.08 0.96 0.99 0.92 1.05 1.05 0.90 0.82 0.80 0.77 0.72 0.70 0.70 0.68
1.55 1.58 1.62 1.57 1.54 1.55 1.52 1.47 1.43 1.42 1.44 1.44 1.47 1.54 1.65 1.87 1.83 1.77 1.67 1.62 1.60 1.59 1.61 1.56 1.52 1.61 1.80 1.84 1.60 1.26 1.11 1.08 1.02 0.91 0.96 0.87 0.82 0.78 0.75 0.70 0.66 0.64 0.63
1.75 1.85 1.83 1.72 1.68 1.69 1.56 1.60 1.71 1.71 1.74 1.60 1.50 1.44 1.44 1.61 1.69 1.70 1.56 1.57 1.67 1.71 1.72 1.70 1.69 1.77 1.86 1.96 1.69 1.41 1.23 1.15 1.09 0.96 0.86 0.77 0.74 0.73 0.76 0.78 0.76 0.68 0.64
1.99 1.91 1.84 1.82 1.79 1.65 1.75 1.76 1.67 1.69 1.85 1.86 1.75 1.66 1.54 1.45 1.45 1.49 1.56 1.59 1.62 1.62 1.66 1.69 1.67 1.71 1.78 1.83 1.89 1.69 1.44 1.22 1.10 0.99 0.94 0.83 0.75 0.72 0.65 0.61 0.72 0.70 0.65
1.89 1.80 1.82 1.86 1.82 1.85 1.79 1.59 1.46 1.46 1.53 1.64 1.70 1.68 1.49 1.35 1.40 1.37 1.53 1.58 1.51 1.45 1.41 1.46 1.51 1.57 1.86 2.05 2.20 1.93 1.67 1.47 1.26 1.11 1.00 0.86 0.78 0.71 0.63 0.61 0.72 0.64 0.59
1.68 1.63 1.63 1.56 1.52 1.50 1.51 1.34 1.30 1.26 1.26 1.24 1.34 1.44 1.41 1.32 1.31 1.33 1.27 1.18 1.13 1.15 1.14 1.08 1.14 1.34 1.63 2.05 2.26 2.24 2.15 1.91 1.67 1.34 1.10 0.93 0.76 0.70 0.67 0.62 0.72 0.69 0.62
1.45 1.34 1.28 1.28 1.27 1.33 1.45 1.28 1.21 1.18 1.22 1.14 1.13 1.14 1.14 1.07 1.11 1.08 1.00 0.91 0.86 0.88 0.91 0.94 0.96 1.12 1.34 1.62 1.96 2.11 2.03 1.81 1.54 1.24 1.01 0.88 0.76 0.74 0.69 0.62 0.64 0.72 0.67
1.38 1.35 1.27 1.22 1.22 1.23 1.35 1.19 1.11 1.11 1.16 1.12 1.12 1.16 1.25 1.10 0.97 0.82 0.80 0.83 0.75 0.73 0.78 0.79 0.80 0.85 0.96 1.16 1.54 1.67 1.65 1.62 1.44 1.21 0.95 0.86 0.76 0.81 0.74 0.61 0.54 0.55 0.59

GEFSMA_prec_meanprecacc_186.txt.gz
Total_Precipitation_Accumulation
2.09 2.14 2.00 2.03 2.04 2.26 2.66 3.12 3.11 3.29 3.33 3.03 2.62 2.44 2.47 2.33 2.29 2.21 1.79 1.88 2.10 2.16 2.17 2.15 2.12 2.05 2.05 1.97 1.77 1.59 1.37 1.24 1.08 0.86 0.68 0.61 0.65 0.59 0.45 0.36 0.28 0.22 0.19
1.91 1.88 1.85 2.03 2.09 2.05 2.21 2.60 2.81 3.13 3.15 2.84 2.40 2.22 2.20 2.24 2.13 2.10 1.83 1.85 1.98 1.87 1.89 2.12 2.32 2.37 2.30 2.16 2.03 1.84 1.60 1.44 1.24 0.95 0.80 0.75 0.60 0.56 0.56 0.45 0.33 0.24 0.18
1.63 1.62 1.68 1.70 1.77 1.75 1.80 1.96 2.19 2.46 2.47 2.38 2.32 2.27 2.20 2.10 1.93 1.91 1.96 1.88 1.65 1.70 1.79 1.93 2.12 2.24 2.40 2.52 2.43 2.18 1.91 1.61 1.33 1.03 0.80 0.68 0.57 0.45 0.40 0.41 0.40 0.32 0.20
1.13 1.22 1.25 1.24 1.26 1.17 1.27 1.55 1.65 1.85 2.11 2.25 2.37 2.24 2.16 2.19 1.99 1.93 1.90 1.89 1.85 1.57 1.79 1.87 1.87 1.92 2.20 2.50 2.60 2.64 2.31 1.89 1.54 1.28 0.99 0.74 0.60 0.50 0.39 0.35 0.40 0.39 0.27
0.97 1.05 1.12 1.20 0.99 0.97 1.03 0.99 1.31 1.50 1.75 1.88 1.69 1.83 1.76 1.80 1.73 1.53 1.54 1.42 1.60 1.57 1.66 1.67 1.73 1.71 1.93 2.42 2.85 3.08 2.87 2.36 1.86 1.55 1.37 1.12 0.92 0.70 0.52 0.43 0.38 0.36 0.30
1.03 1.12 1.00 1.00 0.89 1.01 1.15 1.25 1.47 1.41 1.38 1.49 1.33 1.54 1.46 1.35 1.37 1.30 1.18 1.21 1.26 1.14 1.30 1.46 1.53 1.35 1.61 2.11 2.61 2.96 3.08 2.89 2.41 1.94 1.76 1.63 1.47 1.10 0.76 0.59 0.47 0.41 0.35
1.18 1.24 1.01 1.22 1.09 1.08 1.13 1.16 1.26 1.26 1.16 1.15 1.51 1.71 1.39 1.08 1.04 0.94 0.92 1.03 1.10 1.13 1.32 1.51 1.51 1.46 1.32 1.38 1.56 2.06 2.63 3.09 3.08 2.57 2.19 1.99 1.87 1.46 0.98 0.81 0.72 0.57 0.50
1.15 1.05 1.21 1.09 1.10 1.19 1.23 1.26 1.33 1.32 1.17 1.14 1.46 1.77 1.56 1.52 1.38 0.77 0.85 0.95 1.03 1.21 1.27 1.27 1.38 1.54 1.34 1.42 1.01 1.14 1.80 2.37 2.94 2.91 2.49 2.16 2.04 1.76 1.30 1.05 0.89 0.78 0.70
1.09 1.11 1.10 1.08 1.22 1.04 1.25 1.40 1.36 1.41 1.36 1.23 1.24 1.49 1.51 1.47 1.31 1.06 0.86 0.82 0.93 1.17 1.20 1.26 1.23 1.37 1.46 1.59 1.49 1.09 1.27 1.49 2.11 2.79 2.89 2.43 2.01 1.75 1.55 1.39 1.20 0.96 0.84
1.08 1.07 1.07 1.17 1.27 1.11 1.36 1.12 1.16 1.36 1.44 1.27 1.18 1.05 1.08 1.23 1.33 1.30 1.11 0.89 0.89 0.99 1.04 1.01 1.05 1.24 1.30 1.32 1.34 0.95 0.77 0.88 1.47 2.27 2.75 2.74 2.36 1.94 1.67 1.61 1.69 1.55 1.23
1.16 1.02 1.09 1.17 1.19 1.12 1.18 1.19 1.40 1.31 1.28 1.25 1.22 1.15 1.15 1.10 0.96 1.07 1.17 1.17 1.09 0.85 0.76 0.83 0.95 1.09 1.14 1.20 1.38 1.03 0.75 0.80 0.98 1.36 1.81 2.18 2.31 2.13 1.87 1.90 2.23 2.44 2.23
1.17 1.13 1.19 1.21 1.15 1.07 1.09 1.12 1.23 1.25 1.31 1.37 1.24 1.10 1.14 1.10 1.00 1.06 0.95 0.93 1.00 0.78 0.68 0.71 0.79 0.90 0.98 1.13 1.12 0.89 0.88 1.01 1.05 1.10 1.18 1.37 1.69 1.85 1.86 1.95 2.23 2.63 2.85
1.04 1.10 1.17 1.27 1.20 1.17 1.13 1.18 1.18 1.15 1.24 1.30 1.20 1.06 1.00 0.91 0.99 1.09 1.09 0.92 0.87 0.69 0.71 0.65 0.68 0.74 0.75 1.03 1.28 1.25 1.10 1.19 1.15 1.10 1.10 1.10 1.22 1.43 1.52 1.62 1.88 2.22 2.57
1.14 1.11 1.15 1.15 1.15 1.15 1.14 1.37 1.19 1.10 1.14 1.13 1.03 1.19 1.13 0.85 0.86 0.99 1.10 1.20 1.11 0.93 0.92 0.84 0.85 0.91 0.91 1.04 1.28 1.43 1.20 1.19 1.08 0.99 0.97 0.95 0.98 1.08 1.20 1.27 1.36 1.49 1.66
1.25 1.19 1.11 1.07 1.11 1.18 1.25 1.33 1.23 1.22 1.26 1.13 1.05 1.16 1.10 0.91 0.86 0.83 1.01 1.26 1.40 1.28 1.15 1.04 1.08 1.12 1.10 1.15 1.24 1.12 1.15 1.22 1.13 1.03 0.94 0.90 0.89 0.86 0.86 0.93 0.99 1.01 1.02
1.07 1.12 1.11 1.04 1.10 1.17 1.26 1.33 1.34 1.43 1.50 1.35 1.22 1.23 1.15 1.05 1.08 0.93 0.99 1.18 1.37 1.48 1.41 1.05 1.07 1.08 1.17 1.08 1.21 1.12 1.17 1.22 1.09 1.01 0.91 0.87 0.86 0.85 0.84 0.84 0.88 0.93 0.96
1.03 1.06 1.10 1.10 1.13 1.17 1.25 1.29 1.25 1.44 1.57 1.60 1.43 1.35 1.31 1.29 1.28 1.16 1.18 1.25 1.32 1.48 1.52 1.26 1.18 1.27 1.35 1.30 1.32 1.28 1.19 1.20 1.13 1.10 0.95 0.88 0.85 0.83 0.86 0.85 0.85 0.85 0.89
1.16 1.17 1.19 1.24 1.24 1.22 1.28 1.25 1.15 1.22 1.41 1.62 1.80 1.86 1.66 1.54 1.50 1.38 1.36 1.33 1.34 1.44 1.50 1.47 1.39 1.42 1.42 1.41 1.40 1.23 1.04 1.00 1.04 1.13 1.04 0.96 0.93 0.88 0.85 0.84 0.84 0.84 0.84
1.39 1.40 1.44 1.40 1.39 1.41 1.37 1.31 1.28 1.33 1.41 1.47 1.67 1.86 1.85 1.89 1.71 1.62 1.54 1.47 1.43 1.38 1.48 1.47 1.40 1.52 1.56 1.56 1.44 1.16 1.06 1.10 1.01 1.13 1.12 0.95 0.86 0.85 0.82 0.78 0.76 0.77 0.77
1.56 1.60 1.65 1.60 1.55 1.57 1.54 1.49 1.45 1.44 1.47 1.47 1.49 1.56 1.67 1.88 1.86 1.80 1.70 1.65 1.64 1.64 1.66 1.62 1.58 1.67 1.85 1.90 1.68 1.34 1.20 1.16 1.08 0.95 1.01 0.92 0.85 0.81 0.78 0.73 0.70 0.68 0.68
1.76 1.87 1.84 1.74 1.70 1.70 1.58 1.62 1.74 1.73 1.76 1.62 1.52 1.47 1.46 1.63 1.71 1.72 1.58 1.60 1.71 1.76 1.78 1.76 1.75 1.83 1.91 2.01 1.74 1.47 1.28 1.20 1.14 1.00 0.91 0.81 0.78 0.76 0.80 0.82 0.79 0.71 0.66
2.01 1.94 1.86 1.84 1.81 1.67 1.77 1.78 1.69 1.71 1.87 1.88 1.77 1.68 1.56 1.46 1.46 1.51 1.57 1.60 1.64 1.66 1.71 1.75 1.73 1.77 1.84 1.90 1.95 1.74 1.49 1.27 1.15 1.03 0.98 0.87 0.80 0.76 0.69 0.65 0.74 0.72 0.67
1.94 1.85 1.85 1.88 1.84 1.87 1.81 1.61 1.48 1.47 1.55 1.65 1.72 1.70 1.49 1.35 1.41 1.37 1.53 1.59 1.52 1.46 1.43 1.49 1.55 1.62 1.93 2.12 2.28 2.03 1.77 1.58 1.36 1.20 1.09 0.93 0.85 0.78 0.70 0.68 0.77 0.67 0.62
1.76 1.70 1.69 1.60 1.54 1.53 1.53 1.35 1.31 1.27 1.27 1.25 1.35 1.45 1.42 1.33 1.32 1.34 1.28 1.19 1.14 1.15 1.15 1.09 1.16 1.36 1.66 2.09 2.32 2.32 2.24 2.01 1.76 1.43 1.18 1.01 0.84 0.77 0.73 0.68 0.76 0.73 0.66
1.53 1.39 1.32 1.30 1.29 1.35 1.47 1.30 1.23 1.19 1.23 1.15 1.14 1.15 1.15 1.08 1.12 1.09 1.02 0.92 0.87 0.89 0.92 0.94 0.97 1.13 1.37 1.66 2.00 2.15 2.08 1.86 1.58 1.27 1.06 0.93 0.81 0.78 0.73 0.67 0.69 0.78 0.73
1.43 1.39 1.31 1.25 1.24 1.26 1.37 1.21 1.13 1.12 1.18 1.15 1.13 1.17 1.27 1.12 0.98 0.83 0.81 0.84 0.76 0.74 0.79 0.80 0.81 0.87 0.98 1.20 1.57 1.69 1.68 1.65 1.47 1.24 0.98 0.91 0.83 0.89 0.84 0.73 0.66 0.67 0.69

GEFSMA_prec_meanprecacc_192.txt.gz
Total_Precipitation_Accumulation
2.17 2.22 2.09 2.10 2.09 2.31 2.71 3.19 3.17 3.36 3.38 3.07 2.64 2.45 2.48 2.34 2.29 2.23 1.86 1.91 2.11 2.17 2.18 2.17 2.13 2.08 2.07 1.99 1.80 1.63 1.40 1.27 1.10 0.88 0.70 0.62 0.67 0.62 0.48 0.38 0.30 0.23 0.20
1.99 1.96 1.93 2.11 2.15 2.10 2.26 2.67 2.87 3.21 3.22 2.91 2.43 2.23 2.21 2.25 2.14 2.11 1.86 1.88 2.00 1.88 1.90 2.13 2.34 2.39 2.32 2.19 2.06 1.87 1.63 1.47 1.27 0.98 0.82 0.76 0.62 0.58 0.59 0.47 0.35 0.25 0.20
1.70 1.70 1.77 1.77 1.84 1.79 1.86 2.02 2.27 2.54 2.54 2.44 2.36 2.30 2.23 2.12 1.95 1.93 1.97 1.90 1.66 1.71 1.80 1.94 2.13 2.27 2.43 2.56 2.47 2.21 1.94 1.64 1.36 1.06 0.83 0.70 0.59 0.47 0.42 0.43 0.42 0.33 0.21
1.19 1.29 1.32 1.31 1.32 1.22 1.34 1.63 1.72 1.92 2.18 2.32 2.43 2.27 2.19 2.22 2.01 1.95 1.91 1.91 1.87 1.60 1.82 1.89 1.88 1.94 2.23 2.53 2.63 2.67 2.33 1.91 1.57 1.30 1.01 0.76 0.62 0.52 0.41 0.37 0.41 0.40 0.28
1.02 1.11 1.18 1.27 1.04 1.02 1.09 1.04 1.38 1.58 1.83 1.96 1.73 1.86 1.78 1.83 1.75 1.54 1.55 1.43 1.62 1.59 1.70 1.71 1.75 1.72 1.94 2.45 2.88 3.11 2.91 2.40 1.89 1.58 1.41 1.14 0.94 0.73 0.55 0.45 0.39 0.37 0.31
1.10 1.18 1.06 1.08 0.96 1.08 1.21 1.30 1.54 1.49 1.46 1.55 1.35 1.57 1.49 1.37 1.39 1.31 1.19 1.22 1.26 1.15 1.34 1.50 1.58 1.39 1.63 2.13 2.63 2.99 3.12 2.94 2.46 1.99 1.80 1.66 1.49 1.13 0.79 0.61 0.49 0.43 0.37
1.26 1.33 1.08 1.31 1.17 1.14 1.19 1.22 1.34 1.34 1.23 1.21 1.57 1.76 1.42 1.10 1.08 0.96 0.93 1.05 1.12 1.15 1.34 1.55 1.56 1.53 1.38 1.42 1.59 2.09 2.67 3.15 3.14 2.63 2.24 2.04 1.91 1.50 1.02 0.84 0.74 0.59 0.52
1.24 1.13 1.31 1.16 1.18 1.27 1.29 1.34 1.43 1.41 1.25 1.22 1.54 1.87 1.65 1.60 1.43 0.79 0.87 0.97 1.05 1.24 1.30 1.30 1.42 1.60 1.39 1.51 1.08 1.17 1.84 2.42 3.02 3.00 2.56 2.22 2.09 1.81 1.35 1.08 0.93 0.82 0.72
1.16 1.18 1.18 1.17 1.32 1.13 1.35 1.51 1.46 1.51 1.47 1.32 1.33 1.60 1.66 1.62 1.43 1.12 0.89 0.85 0.96 1.21 1.24 1.29 1.25 1.41 1.51 1.68 1.59 1.19 1.34 1.55 2.18 2.89 2.99 2.53 2.09 1.82 1.61 1.45 1.25 0.99 0.87
1.12 1.12 1.12 1.23 1.36 1.18 1.44 1.17 1.24 1.46 1.54 1.38 1.30 1.18 1.21 1.37 1.49 1.44 1.20 0.95 0.94 1.05 1.10 1.04 1.07 1.27 1.35 1.40 1.43 1.05 0.84 0.94 1.52 2.34 2.84 2.83 2.45 2.03 1.74 1.67 1.75 1.61 1.28
1.22 1.07 1.13 1.22 1.26 1.18 1.24 1.25 1.49 1.39 1.35 1.33 1.33 1.29 1.29 1.22 1.09 1.21 1.31 1.27 1.17 0.92 0.83 0.88 0.98 1.12 1.18 1.26 1.49 1.12 0.83 0.88 1.04 1.40 1.84 2.22 2.37 2.21 1.95 1.97 2.30 2.51 2.30
1.22 1.17 1.24 1.26 1.20 1.12 1.15 1.19 1.31 1.33 1.39 1.45 1.32 1.20 1.27 1.22 1.12 1.18 1.07 1.07 1.13 0.86 0.74 0.75 0.83 0.95 1.04 1.19 1.20 1.00 0.98 1.08 1.11 1.13 1.19 1.38 1.71 1.89 1.93 2.03 2.31 2.72 2.96
1.06 1.14 1.22 1.34 1.26 1.24 1.19 1.26 1.26 1.23 1.31 1.37 1.26 1.13 1.11 1.00 1.07 1.16 1.18 1.03 0.99 0.79 0.81 0.72 0.74 0.80 0.80 1.09 1.36 1.34 1.15 1.24 1.19 1.13 1.11 1.11 1.23 1.44 1.55 1.66 1.95 2.31 2.69
1.15 1.14 1.21 1.19 1.20 1.21 1.19 1.43 1.24 1.15 1.19 1.19 1.08 1.27 1.21 0.92 0.93 1.06 1.19 1.29 1.21 1.02 1.02 0.93 0.92 0.96 0.96 1.09 1.35 1.50 1.24 1.24 1.12 1.02 0.98 0.96 0.99 1.09 1.21 1.29 1.40 1.54 1.73
1.27 1.22 1.14 1.10 1.14 1.22 1.28 1.37 1.28 1.27 1.30 1.17 1.10 1.22 1.15 0.96 0.92 0.89 1.07 1.34 1.50 1.38 1.25 1.16 1.16 1.17 1.16 1.20 1.32 1.19 1.22 1.29 1.19 1.07 0.97 0.91 0.90 0.87 0.88 0.95 1.02 1.05 1.06
1.09 1.14 1.12 1.06 1.12 1.19 1.29 1.36 1.38 1.47 1.53 1.39 1.26 1.26 1.20 1.09 1.13 0.99 1.04 1.24 1.46 1.59 1.51 1.13 1.17 1.16 1.24 1.15 1.33 1.22 1.27 1.34 1.20 1.09 0.97 0.91 0.88 0.87 0.86 0.86 0.91 0.98 1.00
1.05 1.08 1.12 1.14 1.16 1.21 1.30 1.33 1.29 1.47 1.60 1.63 1.46 1.38 1.34 1.33 1.33 1.21 1.23 1.29 1.37 1.56 1.59 1.32 1.25 1.36 1.44 1.37 1.41 1.38 1.30 1.32 1.24 1.17 1.01 0.93 0.89 0.86 0.88 0.88 0.88 0.89 0.93
1.18 1.20 1.22 1.28 1.28 1.26 1.33 1.30 1.20 1.26 1.45 1.65 1.84 1.89 1.69 1.59 1.57 1.43 1.41 1.37 1.39 1.51 1.60 1.55 1.45 1.49 1.50 1.48 1.47 1.30 1.10 1.05 1.12 1.21 1.12 1.02 0.97 0.91 0.88 0.87 0.87 0.86 0.87
1.41 1.43 1.48 1.44 1.43 1.45 1.41 1.35 1.33 1.37 1.45 1.52 1.71 1.90 1.90 1.94 1.76 1.68 1.60 1.52 1.48 1.44 1.56 1.55 1.48 1.61 1.64 1.63 1.50 1.21 1.11 1.15 1.04 1.18 1.17 1.00 0.90 0.87 0.84 0.80 0.78 0.79 0.79
1.60 1.64 1.69 1.64 1.60 1.61 1.58 1.52 1.48 1.47 1.51 1.51 1.53 1.59 1.71 1.92 1.89 1.84 1.74 1.69 1.67 1.68 1.71 1.68 1.64 1.73 1.91 1.96 1.75 1.41 1.25 1.21 1.12 0.98 1.04 0.95 0.89 0.85 0.81 0.75 0.72 0.70 0.70
1.81 1.94 1.90 1.80 1.75 1.74 1.61 1.65 1.77 1.77 1.80 1.65 1.55 1.49 1.48 1.65 1.73 1.74 1.60 1.62 1.73 1.79 1.82 1.81 1.79 1.87 1.95 2.06 1.79 1.52 1.33 1.25 1.19 1.05 0.97 0.86 0.83 0.81 0.84 0.87 0.83 0.74 0.69
2.07 2.01 1.94 1.91 1.87 1.71 1.80 1.82 1.73 1.75 1.92 1.92 1.80 1.71 1.58 1.48 1.48 1.52 1.58 1.61 1.65 1.67 1.73 1.79 1.77 1.81 1.88 1.94 1.98 1.78 1.52 1.32 1.20 1.09 1.05 0.95 0.89 0.87 0.79 0.75 0.83 0.79 0.72
1.99 1.91 1.94 1.96 1.90 1.91 1.85 1.63 1.51 1.51 1.59 1.69 1.76 1.74 1.52 1.39 1.45 1.40 1.55 1.60 1.53 1.47 1.44 1.51 1.57 1.65 1.96 2.15 2.32 2.06 1.81 1.62 1.42 1.27 1.17 1.01 0.93 0.87 0.78 0.76 0.86 0.75 0.69
1.80 1.75 1.74 1.66 1.61 1.60 1.59 1.39 1.33 1.29 1.30 1.28 1.39 1.49 1.45 1.36 1.35 1.38 1.31 1.22 1.16 1.17 1.16 1.11 1.17 1.38 1.68 2.11 2.34 2.35 2.27 2.04 1.80 1.46 1.22 1.05 0.88 0.82 0.78 0.73 0.82 0.78 0.71
1.57 1.42 1.35 1.35 1.34 1.40 1.52 1.33 1.26 1.22 1.27 1.18 1.18 1.18 1.19 1.11 1.15 1.12 1.04 0.95 0.90 0.91 0.94 0.96 0.98 1.14 1.37 1.66 2.01 2.16 2.10 1.90 1.62 1.31 1.09 0.95 0.84 0.82 0.77 0.70 0.72 0.82 0.76
1.46 1.43 1.35 1.29 1.28 1.30 1.42 1.25 1.16 1.15 1.22 1.18 1.17 1.20 1.29 1.14 1.01 0.85 0.82 0.85 0.78 0.76 0.80 0.81 0.82 0.89 1.00 1.21 1.58 1.70 1.70 1.69 1.51 1.27 1.01 0.93 0.86 0.93 0.88 0.75 0.69 0.69 0.71

GEFSMA_prec_meanprecacc_198.txt.gz
Total_Precipitation_Accumulation
2.18 2.24 2.11 2.12 2.11 2.32 2.73 3.23 3.21 3.38 3.40 3.09 2.66 2.47 2.50 2.36 2.32 2.27 1.91 1.96 2.14 2.20 2.20 2.19 2.15 2.09 2.10 2.02 1.83 1.65 1.43 1.29 1.12 0.89 0.71 0.63 0.68 0.63 0.49 0.39 0.31 0.24 0.21
2.01 1.99 1.95 2.12 2.17 2.12 2.28 2.70 2.89 3.23 3.24 2.92 2.45 2.24 2.22 2.27 2.16 2.15 1.89 1.91 2.04 1.92 1.93 2.17 2.38 2.43 2.35 2.23 2.09 1.90 1.66 1.50 1.30 1.00 0.84 0.78 0.63 0.59 0.60 0.48 0.36 0.26 0.20
1.72 1.71 1.79 1.79 1.86 1.82 1.88 2.06 2.31 2.58 2.57 2.46 2.38 2.31 2.24 2.14 1.97 1.96 2.01 1.94 1.69 1.75 1.84 1.97 2.17 2.31 2.46 2.59 2.52 2.26 1.97 1.67 1.38 1.08 0.84 0.71 0.61 0.49 0.44 0.44 0.43 0.35 0.23
1.21 1.31 1.35 1.34 1.35 1.25 1.37 1.66 1.75 1.96 2.21 2.33 2.44 2.28 2.20 2.24 2.03 1.98 1.95 1.94 1.90 1.64 1.88 1.92 1.92 1.98 2.26 2.57 2.68 2.72 2.38 1.95 1.59 1.32 1.02 0.77 0.64 0.53 0.42 0.39 0.43 0.42 0.30
1.08 1.14 1.21 1.30 1.08 1.05 1.12 1.07 1.41 1.60 1.85 1.98 1.75 1.88 1.80 1.86 1.78 1.58 1.59 1.47 1.65 1.64 1.74 1.73 1.78 1.76 1.98 2.49 2.93 3.16 2.95 2.43 1.92 1.61 1.43 1.16 0.95 0.74 0.56 0.46 0.41 0.39 0.33
1.14 1.23 1.09 1.10 0.98 1.12 1.25 1.35 1.58 1.52 1.49 1.59 1.39 1.61 1.51 1.40 1.44 1.37 1.25 1.26 1.32 1.22 1.42 1.58 1.66 1.43 1.66 2.17 2.68 3.04 3.17 2.99 2.51 2.03 1.83 1.68 1.51 1.14 0.80 0.62 0.50 0.44 0.38
1.30 1.37 1.12 1.36 1.21 1.18 1.24 1.26 1.38 1.38 1.27 1.25 1.60 1.78 1.44 1.13 1.12 1.01 0.99 1.13 1.20 1.23 1.44 1.67 1.69 1.63 1.44 1.46 1.64 2.16 2.75 3.23 3.23 2.71 2.31 2.10 1.96 1.54 1.04 0.86 0.76 0.61 0.53
1.26 1.16 1.34 1.21 1.23 1.32 1.35 1.40 1.48 1.47 1.31 1.26 1.57 1.90 1.66 1.62 1.47 0.83 0.93 1.06 1.16 1.36 1.43 1.42 1.55 1.72 1.47 1.59 1.16 1.24 1.91 2.51 3.13 3.11 2.67 2.30 2.17 1.87 1.40 1.14 0.98 0.85 0.75
1.17 1.20 1.20 1.20 1.37 1.18 1.40 1.55 1.51 1.56 1.52 1.37 1.39 1.65 1.69 1.66 1.46 1.14 0.93 0.92 1.09 1.39 1.43 1.49 1.40 1.51 1.61 1.82 1.70 1.30 1.42 1.63 2.30 3.04 3.14 2.66 2.19 1.90 1.68 1.52 1.32 1.05 0.93
1.14 1.13 1.14 1.26 1.40 1.21 1.47 1.20 1.26 1.49 1.58 1.43 1.36 1.24 1.27 1.43 1.54 1.48 1.24 1.02 1.04 1.18 1.27 1.19 1.21 1.39 1.47 1.55 1.58 1.18 0.97 1.05 1.66 2.54 3.02 2.98 2.58 2.14 1.83 1.76 1.84 1.70 1.35
1.25 1.09 1.15 1.25 1.30 1.22 1.28 1.28 1.52 1.43 1.40 1.38 1.39 1.39 1.41 1.31 1.14 1.25 1.35 1.32 1.23 0.99 0.92 0.97 1.10 1.26 1.29 1.38 1.62 1.26 0.98 1.02 1.20 1.56 1.97 2.32 2.47 2.30 2.04 2.07 2.41 2.63 2.40
1.25 1.20 1.26 1.28 1.22 1.16 1.20 1.22 1.34 1.36 1.42 1.48 1.36 1.25 1.32 1.27 1.18 1.24 1.11 1.10 1.18 0.91 0.80 0.83 0.94 1.11 1.18 1.31 1.31 1.13 1.14 1.27 1.27 1.26 1.30 1.47 1.77 1.97 2.02 2.12 2.40 2.83 3.07
1.08 1.15 1.23 1.35 1.28 1.27 1.25 1.32 1.30 1.27 1.34 1.40 1.29 1.16 1.13 1.03 1.11 1.21 1.23 1.07 1.03 0.82 0.86 0.80 0.86 0.92 0.93 1.26 1.54 1.53 1.33 1.40 1.31 1.22 1.19 1.19 1.30 1.50 1.60 1.71 2.01 2.39 2.77
1.16 1.15 1.21 1.20 1.21 1.23 1.22 1.48 1.29 1.19 1.23 1.22 1.11 1.29 1.23 0.94 0.97 1.09 1.22 1.34 1.25 1.04 1.05 0.99 1.00 1.05 1.06 1.22 1.46 1.60 1.35 1.34 1.19 1.09 1.05 1.02 1.04 1.13 1.25 1.32 1.43 1.58 1.78
1.28 1.24 1.16 1.11 1.16 1.24 1.31 1.41 1.32 1.32 1.34 1.20 1.13 1.24 1.17 0.98 0.95 0.92 1.11 1.39 1.55 1.41 1.28 1.19 1.20 1.22 1.20 1.24 1.38 1.27 1.33 1.35 1.24 1.13 1.03 0.96 0.94 0.91 0.92 0.99 1.06 1.08 1.09
1.10 1.16 1.14 1.08 1.13 1.21 1.31 1.39 1.42 1.52 1.58 1.44 1.30 1.29 1.22 1.11 1.15 1.01 1.06 1.28 1.49 1.63 1.53 1.16 1.20 1.21 1.29 1.18 1.37 1.28 1.32 1.37 1.23 1.13 1.03 0.98 0.95 0.92 0.91 0.92 0.97 1.04 1.05
1.07 1.10 1.14 1.16 1.18 1.23 1.32 1.36 1.33 1.52 1.66 1.68 1.50 1.42 1.37 1.36 1.35 1.23 1.25 1.32 1.40 1.59 1.61 1.34 1.28 1.40 1.47 1.40 1.43 1.39 1.31 1.34 1.26 1.20 1.05 0.98 0.94 0.91 0.93 0.91 0.91 0.92 0.96
1.20 1.22 1.24 1.31 1.29 1.28 1.35 1.34 1.25 1.30 1.48 1.69 1.88 1.92 1.71 1.62 1.59 1.45 1.43 1.39 1.40 1.53 1.61 1.56 1.47 1.53 1.54 1.51 1.49 1.32 1.12 1.07 1.13 1.24 1.16 1.05 0.99 0.93 0.89 0.88 0.88 0.88 0.89
1.45 1.48 1.50 1.46 1.45 1.47 1.45 1.40 1.38 1.41 1.49 1.56 1.74 1.93 1.93 1.96 1.78 1.71 1.62 1.53 1.49 1.45 1.57 1.57 1.50 1.64 1.67 1.66 1.54 1.24 1.14 1.17 1.05 1.20 1.19 1.02 0.92 0.89 0.85 0.81 0.79 0.81 0.81
1.66 1.68 1.71 1.67 1.63 1.65 1.63 1.58 1.53 1.52 1.55 1.55 1.56 1.62 1.73 1.95 1.93 1.88 1.76 1.71 1.70 1.70 1.73 1.70 1.65 1.75 1.92 1.98 1.78 1.44 1.29 1.24 1.14 1.00 1.05 0.95 0.90 0.87 0.83 0.78 0.75 0.73 0.74
1.86 1.96 1.92 1.83 1.80 1.80 1.67 1.71 1.83 1.82 1.85 1.70 1.59 1.52 1.50 1.68 1.76 1.77 1.62 1.65 1.76 1.82 1.85 1.84 1.81 1.88 1.97 2.07 1.80 1.54 1.35 1.28 1.21 1.06 0.97 0.86 0.84 0.82 0.87 0.90 0.86 0.78 0.74
2.10 2.03 1.96 1.96 1.93 1.77 1.86 1.87 1.79 1.82 1.97 1.97 1.84 1.76 1.63 1.52 1.52 1.56 1.61 1.65 1.69 1.71 1.77 1.82 1.78 1.82 1.89 1.95 2.00 1.80 1.54 1.34 1.22 1.10 1.06 0.96 0.91 0.88 0.81 0.77 0.86 0.83 0.76
2.02 1.94 1.98 2.02 1.96 1.97 1.91 1.71 1.59 1.60 1.66 1.75 1.82 1.80 1.60 1.45 1.51 1.46 1.61 1.65 1.57 1.52 1.48 1.53 1.59 1.66 1.97 2.17 2.33 2.08 1.82 1.64 1.43 1.28 1.18 1.02 0.94 0.88 0.79 0.77 0.87 0.76 0.70
1.84 1.79 1.79 1.71 1.67 1.66 1.66 1.49 1.44 1.39 1.37 1.35 1.45 1.56 1.53 1.43 1.42 1.45 1.38 1.26 1.20 1.21 1.19 1.13 1.19 1.39 1.69 2.12 2.36 2.36 2.28 2.06 1.82 1.48 1.23 1.06 0.89 0.83 0.78 0.74 0.83 0.79 0.72
1.63 1.48 1.40 1.39 1.40 1.47 1.60 1.43 1.35 1.30 1.34 1.25 1.24 1.24 1.24 1.17 1.23 1.22 1.13 1.01 0.95 0.95 0.96 0.97 0.99 1.15 1.38 1.67 2.02 2.17 2.12 1.91 1.64 1.32 1.10 0.96 0.85 0.83 0.77 0.71 0.73 0.83 0.77
1.56 1.52 1.44 1.37 1.36 1.38 1.52 1.34 1.24 1.22 1.28 1.24 1.23 1.26 1.35 1.19 1.08 0.94 0.90 0.91 0.82 0.78 0.82 0.82 0.83 0.89 1.01 1.22 1.60 1.72 1.71 1.70 1.52 1.28 1.02 0.94 0.86 0.93 0.88 0.76 0.69 0.70 0.71

GEFSMA_prec_meanprecacc_204.txt.gz
Total_Precipitation_Accumulation
2.21 2.26 2.13 2.16 2.16 2.37 2.76 3.25 3.23 3.41 3.43 3.11 2.67 2.48 2.51 2.37 2.34 2.28 1.93 2.01 2.22 2.28 2.30 2.28 2.22 2.16 2.17 2.08 1.90 1.71 1.48 1.35 1.17 0.93 0.74 0.65 0.70 0.65 0.50 0.41 0.32 0.25 0.22
2.03 2.00 1.97 2.15 2.20 2.14 2.29 2.72 2.92 3.25 3.27 2.94 2.47 2.27 2.25 2.29 2.18 2.16 1.91 1.94 2.11 1.99 2.02 2.27 2.47 2.52 2.43 2.30 2.15 1.96 1.72 1.56 1.36 1.06 0.90 0.81 0.65 0.61 0.62 0.50 0.37 0.27 0.22
1.74 1.73 1.81 1.80 1.88 1.84 1.91 2.09 2.35 2.63 2.61 2.49 2.40 2.33 2.26 2.16 1.99 1.98 2.03 1.96 1.72 1.81 1.92 2.06 2.27 2.40 2.56 2.68 2.59 2.34 2.04 1.73 1.42 1.12 0.88 0.74 0.63 0.51 0.47 0.47 0.45 0.37 0.25
1.25 1.33 1.37 1.35 1.37 1.27 1.40 1.70 1.81 2.02 2.25 2.36 2.47 2.29 2.22 2.26 2.04 1.99 1.96 1.96 1.92 1.67 1.93 1.99 2.00 2.06 2.35 2.66 2.78 2.81 2.45 1.99 1.63 1.35 1.05 0.81 0.67 0.55 0.43 0.40 0.45 0.44 0.32
1.13 1.17 1.24 1.32 1.10 1.07 1.15 1.10 1.45 1.65 1.89 2.02 1.79 1.91 1.83 1.89 1.80 1.59 1.60 1.49 1.67 1.66 1.77 1.77 1.85 1.84 2.07 2.61 3.05 3.27 3.03 2.50 1.97 1.65 1.47 1.19 0.98 0.76 0.57 0.47 0.42 0.40 0.34
1.19 1.27 1.12 1.13 1.01 1.14 1.29 1.38 1.62 1.57 1.53 1.65 1.43 1.63 1.54 1.42 1.45 1.38 1.26 1.28 1.34 1.24 1.45 1.61 1.70 1.48 1.73 2.26 2.79 3.15 3.27 3.11 2.62 2.11 1.90 1.73 1.54 1.16 0.82 0.63 0.51 0.45 0.39
1.33 1.40 1.15 1.38 1.23 1.20 1.27 1.31 1.43 1.43 1.31 1.29 1.63 1.80 1.46 1.14 1.14 1.02 1.01 1.16 1.22 1.25 1.47 1.72 1.76 1.70 1.50 1.50 1.69 2.23 2.85 3.38 3.38 2.84 2.43 2.20 2.04 1.60 1.09 0.89 0.78 0.62 0.55
1.29 1.19 1.38 1.23 1.26 1.34 1.38 1.45 1.53 1.52 1.37 1.31 1.60 1.91 1.67 1.63 1.48 0.85 0.95 1.09 1.19 1.39 1.46 1.47 1.61 1.80 1.54 1.64 1.21 1.28 1.99 2.64 3.32 3.33 2.87 2.46 2.31 2.00 1.51 1.22 1.04 0.92 0.81
1.20 1.22 1.22 1.23 1.40 1.22 1.43 1.59 1.55 1.60 1.57 1.43 1.44 1.69 1.73 1.68 1.47 1.15 0.94 0.94 1.10 1.41 1.46 1.53 1.44 1.58 1.69 1.89 1.77 1.36 1.48 1.71 2.43 3.24 3.38 2.87 2.37 2.05 1.80 1.64 1.44 1.15 1.02
1.16 1.15 1.15 1.29 1.42 1.24 1.51 1.25 1.30 1.51 1.61 1.47 1.41 1.30 1.32 1.46 1.55 1.49 1.26 1.04 1.05 1.20 1.30 1.23 1.26 1.45 1.56 1.64 1.67 1.26 1.04 1.12 1.74 2.66 3.20 3.17 2.73 2.26 1.95 1.88 1.97 1.81 1.44
1.27 1.11 1.17 1.28 1.33 1.25 1.32 1.33 1.57 1.48 1.44 1.42 1.43 1.45 1.49 1.40 1.20 1.28 1.37 1.35 1.26 1.02 0.94 0.99 1.13 1.30 1.35 1.46 1.69 1.32 1.05 1.09 1.26 1.63 2.05 2.42 2.57 2.41 2.16 2.19 2.53 2.75 2.51
1.28 1.22 1.28 1.31 1.26 1.19 1.23 1.26 1.38 1.41 1.47 1.53 1.40 1.29 1.38 1.32 1.21 1.26 1.12 1.11 1.21 0.94 0.82 0.85 0.96 1.15 1.23 1.35 1.35 1.17 1.19 1.33 1.34 1.31 1.34 1.51 1.83 2.06 2.13 2.23 2.51 2.94 3.18
1.12 1.16 1.26 1.38 1.32 1.32 1.29 1.37 1.36 1.31 1.38 1.43 1.31 1.19 1.15 1.05 1.14 1.24 1.26 1.09 1.06 0.84 0.88 0.83 0.88 0.97 0.98 1.30 1.58 1.59 1.39 1.45 1.36 1.27 1.25 1.25 1.35 1.55 1.65 1.78 2.08 2.46 2.85
1.20 1.17 1.24 1.24 1.26 1.29 1.29 1.54 1.35 1.24 1.27 1.25 1.13 1.31 1.26 0.97 0.99 1.13 1.26 1.36 1.27 1.05 1.06 1.01 1.02 1.07 1.09 1.26 1.50 1.65 1.39 1.38 1.21 1.12 1.09 1.06 1.08 1.17 1.28 1.36 1.48 1.64 1.85
1.31 1.27 1.18 1.15 1.20 1.29 1.37 1.45 1.36 1.36 1.39 1.24 1.16 1.28 1.21 1.01 0.98 0.95 1.15 1.42 1.57 1.42 1.29 1.20 1.21 1.23 1.22 1.26 1.41 1.29 1.35 1.36 1.24 1.13 1.04 0.98 0.96 0.93 0.94 1.03 1.11 1.13 1.16
1.13 1.19 1.17 1.11 1.16 1.24 1.34 1.43 1.46 1.56 1.63 1.48 1.35 1.35 1.26 1.14 1.18 1.03 1.09 1.31 1.52 1.65 1.54 1.16 1.21 1.22 1.30 1.20 1.39 1.29 1.32 1.37 1.23 1.13 1.04 0.99 0.96 0.94 0.93 0.95 1.01 1.09 1.13
1.10 1.14 1.19 1.21 1.22 1.26 1.36 1.41 1.38 1.58 1.72 1.74 1.57 1.46 1.42 1.40 1.39 1.26 1.27 1.35 1.43 1.62 1.64 1.35 1.29 1.40 1.48 1.41 1.44 1.40 1.32 1.34 1.26 1.21 1.06 0.99 0.95 0.92 0.94 0.93 0.94 0.95 1.00
1.24 1.26 1.30 1.37 1.34 1.32 1.39 1.38 1.29 1.36 1.55 1.77 1.95 1.99 1.77 1.67 1.63 1.49 1.46 1.41 1.42 1.55 1.64 1.58 1.48 1.54 1.54 1.52 1.50 1.33 1.13 1.08 1.14 1.25 1.17 1.06 1.00 0.94 0.90 0.90 0.91 0.90 0.91
1.46 1.52 1.56 1.50 1.48 1.49 1.47 1.43 1.42 1.45 1.54 1.62 1.80 1.99 1.98 2.01 1.82 1.74 1.66 1.57 1.52 1.48 1.60 1.59 1.52 1.65 1.68 1.67 1.55 1.26 1.16 1.19 1.07 1.23 1.22 1.04 0.94 0.90 0.86 0.82 0.80 0.82 0.82
1.68 1.70 1.73 1.68 1.65 1.67 1.65 1.61 1.57 1.55 1.59 1.59 1.61 1.67 1.77 1.99 1.96 1.91 1.80 1.76 1.75 1.74 1.78 1.74 1.69 1.78 1.95 2.00 1.80 1.47 1.33 1.28 1.18 1.04 1.09 0.99 0.93 0.89 0.84 0.79 0.76 0.73 0.75
1.88 1.98 1.93 1.83 1.81 1.83 1.69 1.74 1.86 1.86 1.89 1.73 1.63 1.56 1.55 1.73 1.80 1.81 1.66 1.70 1.82 1.89 1.92 1.89 1.86 1.92 2.00 2.10 1.83 1.57 1.39 1.33 1.27 1.12 1.02 0.90 0.87 0.85 0.88 0.91 0.87 0.79 0.74
2.12 2.05 1.97 1.97 1.95 1.80 1.90 1.92 1.83 1.86 2.02 2.02 1.89 1.80 1.68 1.58 1.57 1.61 1.67 1.71 1.75 1.76 1.81 1.85 1.81 1.85 1.93 1.98 2.03 1.84 1.59 1.38 1.27 1.14 1.11 1.00 0.93 0.90 0.82 0.78 0.88 0.84 0.77
2.05 1.97 2.00 2.05 2.00 2.01 1.96 1.76 1.64 1.64 1.69 1.79 1.85 1.83 1.64 1.49 1.55 1.50 1.65 1.69 1.62 1.56 1.52 1.56 1.61 1.68 1.99 2.19 2.36 2.11 1.85 1.66 1.45 1.30 1.22 1.06 0.98 0.90 0.81 0.79 0.90 0.78 0.71
1.90 1.85 1.84 1.76 1.72 1.71 1.72 1.54 1.48 1.43 1.41 1.38 1.48 1.59 1.56 1.46 1.45 1.48 1.42 1.30 1.24 1.26 1.24 1.17 1.22 1.41 1.71 2.14 2.37 2.37 2.30 2.07 1.83 1.50 1.26 1.09 0.91 0.85 0.81 0.76 0.85 0.80 0.73
1.71 1.56 1.47 1.46 1.46 1.53 1.66 1.48 1.39 1.34 1.40 1.30 1.28 1.29 1.30 1.22 1.28 1.27 1.17 1.06 1.00 1.01 1.03 1.03 1.03 1.17 1.39 1.69 2.03 2.19 2.13 1.93 1.65 1.33 1.12 0.98 0.87 0.85 0.81 0.74 0.75 0.85 0.78
1.70 1.65 1.53 1.44 1.42 1.43 1.58 1.39 1.29 1.26 1.32 1.29 1.29 1.32 1.41 1.25 1.13 0.99 0.94 0.95 0.87 0.83 0.87 0.86 0.86 0.91 1.02 1.24 1.62 1.73 1.72 1.72 1.53 1.29 1.02 0.95 0.87 0.94 0.90 0.77 0.71 0.71 0.72

GEFSMA_prec_meanprecacc_210.txt.gz
Total_Precipitation_Accumulation
2.29 2.34 2.20 2.22 2.22 2.44 2.85 3.36 3.31 3.48 3.47 3.15 2.70 2.51 2.55 2.42 2.37 2.32 1.96 2.04 2.26 2.31 2.35 2.32 2.27 2.22 2.24 2.14 1.95 1.76 1.53 1.40 1.21 0.95 0.76 0.67 0.71 0.67 0.52 0.42 0.33 0.27 0.24
2.10 2.07 2.04 2.22 2.28 2.22 2.38 2.80 2.99 3.33 3.33 2.99 2.50 2.29 2.29 2.34 2.21 2.20 1.95 1.99 2.14 2.03 2.06 2.32 2.53 2.58 2.51 2.36 2.22 2.03 1.78 1.61 1.38 1.07 0.91 0.82 0.66 0.62 0.64 0.53 0.40 0.29 0.23
1.79 1.79 1.87 1.87 1.95 1.90 1.98 2.16 2.42 2.71 2.69 2.55 2.44 2.37 2.29 2.19 2.02 2.01 2.06 2.00 1.76 1.84 1.95 2.09 2.32 2.46 2.62 2.74 2.66 2.41 2.11 1.77 1.44 1.13 0.90 0.75 0.65 0.54 0.49 0.49 0.48 0.40 0.27
1.29 1.40 1.44 1.42 1.44 1.33 1.47 1.77 1.87 2.11 2.35 2.44 2.53 2.33 2.23 2.28 2.06 2.01 1.98 1.99 1.97 1.69 1.96 2.03 2.07 2.13 2.43 2.75 2.87 2.89 2.52 2.05 1.67 1.37 1.08 0.83 0.69 0.57 0.46 0.43 0.48 0.47 0.34
1.16 1.23 1.31 1.40 1.17 1.14 1.21 1.15 1.51 1.72 1.97 2.10 1.85 1.96 1.86 1.92 1.83 1.61 1.62 1.51 1.69 1.68 1.81 1.80 1.90 1.89 2.13 2.72 3.16 3.35 3.11 2.56 2.01 1.68 1.49 1.21 1.00 0.78 0.59 0.49 0.44 0.42 0.36
1.22 1.33 1.18 1.20 1.07 1.21 1.36 1.46 1.70 1.64 1.60 1.70 1.47 1.67 1.57 1.44 1.47 1.41 1.29 1.30 1.36 1.27 1.49 1.67 1.77 1.55 1.78 2.31 2.87 3.24 3.38 3.22 2.70 2.18 1.95 1.77 1.59 1.20 0.85 0.66 0.53 0.47 0.41
1.37 1.46 1.21 1.45 1.30 1.26 1.34 1.38 1.50 1.50 1.36 1.33 1.67 1.85 1.49 1.15 1.15 1.04 1.02 1.18 1.25 1.29 1.54 1.79 1.83 1.77 1.56 1.56 1.74 2.30 2.93 3.49 3.52 2.96 2.53 2.28 2.13 1.68 1.15 0.94 0.82 0.66 0.58
1.33 1.24 1.45 1.29 1.32 1.41 1.45 1.51 1.60 1.59 1.42 1.35 1.65 1.97 1.72 1.67 1.50 0.86 0.96 1.10 1.20 1.42 1.49 1.50 1.65 1.86 1.60 1.71 1.27 1.32 2.03 2.69 3.41 3.44 2.98 2.56 2.42 2.09 1.59 1.30 1.10 0.96 0.85
1.23 1.26 1.27 1.28 1.46 1.28 1.50 1.68 1.62 1.67 1.64 1.49 1.50 1.77 1.81 1.77 1.54 1.19 0.96 0.96 1.14 1.45 1.49 1.55 1.46 1.61 1.73 1.94 1.84 1.40 1.50 1.73 2.48 3.31 3.47 2.97 2.47 2.14 1.89 1.74 1.55 1.25 1.10
1.17 1.17 1.18 1.33 1.48 1.29 1.59 1.33 1.36 1.59 1.70 1.54 1.48 1.35 1.37 1.51 1.63 1.56 1.30 1.07 1.08 1.24 1.33 1.25 1.28 1.48 1.60 1.69 1.71 1.29 1.07 1.14 1.76 2.69 3.25 3.24 2.81 2.33 2.02 1.96 2.07 1.91 1.52
1.28 1.12 1.19 1.31 1.37 1.29 1.37 1.40 1.64 1.56 1.51 1.49 1.52 1.53 1.57 1.47 1.26 1.34 1.43 1.40 1.30 1.04 0.97 1.02 1.14 1.32 1.37 1.49 1.72 1.35 1.07 1.11 1.28 1.65 2.08 2.45 2.61 2.45 2.21 2.27 2.62 2.84 2.59
1.31 1.23 1.30 1.35 1.30 1.24 1.29 1.32 1.45 1.48 1.55 1.61 1.48 1.37 1.47 1.39 1.28 1.32 1.18 1.17 1.26 0.97 0.85 0.87 0.98 1.17 1.26 1.37 1.37 1.19 1.21 1.35 1.35 1.32 1.35 1.52 1.85 2.08 2.16 2.28 2.58 3.03 3.26
1.16 1.19 1.29 1.43 1.37 1.36 1.34 1.43 1.42 1.37 1.46 1.51 1.39 1.27 1.23 1.11 1.20 1.30 1.33 1.15 1.11 0.88 0.91 0.85 0.91 0.99 1.00 1.32 1.61 1.60 1.40 1.47 1.38 1.30 1.29 1.28 1.39 1.59 1.70 1.84 2.15 2.54 2.93
1.25 1.20 1.27 1.28 1.31 1.34 1.34 1.60 1.40 1.29 1.33 1.32 1.21 1.39 1.32 1.03 1.06 1.18 1.32 1.42 1.32 1.10 1.10 1.03 1.03 1.09 1.11 1.28 1.53 1.66 1.40 1.39 1.23 1.13 1.10 1.07 1.10 1.19 1.31 1.40 1.53 1.70 1.90
1.35 1.29 1.20 1.18 1.24 1.34 1.43 1.52 1.42 1.41 1.45 1.30 1.22 1.35 1.27 1.07 1.03 1.01 1.20 1.47 1.62 1.47 1.33 1.23 1.23 1.25 1.24 1.28 1.43 1.31 1.37 1.38 1.26 1.14 1.05 0.98 0.96 0.94 0.95 1.04 1.12 1.16 1.20
1.17 1.22 1.20 1.14 1.19 1.27 1.38 1.48 1.51 1.61 1.69 1.54 1.41 1.40 1.31 1.18 1.22 1.08 1.13 1.36 1.57 1.69 1.58 1.19 1.24 1.25 1.32 1.21 1.40 1.30 1.34 1.39 1.24 1.14 1.04 0.99 0.96 0.94 0.93 0.96 1.02 1.11 1.15
1.13 1.17 1.21 1.23 1.25 1.29 1.39 1.45 1.41 1.62 1.76 1.79 1.61 1.50 1.45 1.44 1.43 1.30 1.32 1.39 1.47 1.66 1.67 1.38 1.30 1.43 1.52 1.44 1.46 1.42 1.33 1.35 1.27 1.21 1.06 0.99 0.95 0.92 0.94 0.94 0.95 0.96 1.01
1.27 1.29 1.32 1.40 1.37 1.35 1.42 1.42 1.34 1.41 1.60 1.80 1.99 2.03 1.82 1.72 1.68 1.53 1.50 1.45 1.47 1.59 1.67 1.61 1.51 1.56 1.58 1.55 1.53 1.35 1.14 1.08 1.14 1.26 1.19 1.07 1.01 0.94 0.91 0.91 0.92 0.91 0.92
1.48 1.54 1.58 1.52 1.51 1.52 1.50 1.46 1.45 1.49 1.58 1.66 1.85 2.03 2.03 2.06 1.86 1.79 1.70 1.61 1.56 1.51 1.63 1.63 1.55 1.69 1.71 1.71 1.58 1.28 1.18 1.22 1.09 1.25 1.25 1.06 0.96 0.92 0.88 0.84 0.83 0.84 0.84
1.69 1.71 1.74 1.69 1.66 1.70 1.67 1.63 1.59 1.58 1.62 1.62 1.64 1.70 1.81 2.04 2.00 1.96 1.84 1.81 1.79 1.78 1.82 1.78 1.73 1.81 1.98 2.04 1.83 1.50 1.36 1.32 1.21 1.06 1.13 1.02 0.96 0.93 0.88 0.83 0.79 0.76 0.77
1.89 1.99 1.95 1.85 1.83 1.85 1.71 1.76 1.88 1.87 1.91 1.76 1.67 1.60 1.58 1.77 1.85 1.86 1.69 1.74 1.87 1.93 1.96 1.93 1.90 1.95 2.03 2.14 1.88 1.61 1.43 1.38 1.34 1.18 1.08 0.95 0.93 0.90 0.93 0.96 0.91 0.82 0.76
2.14 2.06 1.98 1.99 1.98 1.81 1.92 1.95 1.85 1.89 2.04 2.04 1.91 1.82 1.70 1.61 1.60 1.65 1.70 1.74 1.79 1.80 1.85 1.89 1.85 1.89 1.96 2.02 2.09 1.90 1.66 1.47 1.36 1.23 1.20 1.08 1.00 0.97 0.89 0.82 0.91 0.87 0.80
2.10 2.00 2.03 2.08 2.02 2.04 1.99 1.78 1.66 1.66 1.71 1.81 1.87 1.85 1.65 1.51 1.58 1.54 1.69 1.72 1.64 1.59 1.55 1.60 1.65 1.72 2.05 2.25 2.42 2.16 1.90 1.72 1.51 1.36 1.28 1.14 1.05 0.97 0.86 0.82 0.92 0.80 0.74
1.95 1.93 1.94 1.86 1.78 1.75 1.76 1.57 1.51 1.46 1.42 1.39 1.50 1.61 1.58 1.49 1.49 1.53 1.47 1.33 1.26 1.28 1.27 1.19 1.25 1.46 1.76 2.19 2.42 2.42 2.33 2.10 1.85 1.52 1.30 1.12 0.94 0.88 0.84 0.79 0.87 0.82 0.75
1.75 1.63 1.56 1.53 1.51 1.56 1.68 1.50 1.41 1.36 1.41 1.32 1.31 1.31 1.32 1.24 1.31 1.32 1.22 1.10 1.03 1.03 1.05 1.06 1.06 1.21 1.44 1.73 2.07 2.22 2.15 1.95 1.67 1.34 1.13 1.00 0.89 0.87 0.82 0.76 0.77 0.87 0.80
1.81 1.76 1.59 1.47 1.44 1.45 1.59 1.41 1.31 1.28 1.34 1.32 1.32 1.35 1.44 1.27 1.16 1.03 0.97 0.98 0.89 0.86 0.90 0.88 0.88 0.94 1.05 1.27 1.65 1.76 1.75 1.75 1.56 1.32 1.04 0.97 0.88 0.96 0.91 0.79 0.72 0.73 0.74

GEFSMA_prec_meanprecacc_216.txt.gz
Total_Precipitation_Accumulation
2.36 2.41 2.28 2.31 2.29 2.51 2.93 3.46 3.41 3.57 3.54 3.20 2.73 2.52 2.56 2.43 2.38 2.33 1.98 2.06 2.26 2.31 2.35 2.33 2.27 2.23 2.26 2.16 1.98 1.80 1.57 1.43 1.23 0.97 0.79 0.70 0.74 0.70 0.55 0.45 0.35 0.29 0.26
2.18 2.15 2.12 2.29 2.35 2.30 2.46 2.89 3.08 3.43 3.40 3.06 2.55 2.32 2.30 2.35 2.23 2.21 1.97 2.02 2.16 2.03 2.06 2.32 2.53 2.60 2.52 2.39 2.25 2.07 1.82 1.64 1.40 1.08 0.93 0.84 0.68 0.65 0.68 0.56 0.42 0.31 0.25
1.86 1.86 1.95 1.95 2.01 1.95 2.03 2.24 2.49 2.77 2.74 2.60 2.48 2.40 2.31 2.21 2.04 2.02 2.08 2.03 1.79 1.86 1.96 2.10 2.34 2.47 2.64 2.77 2.69 2.45 2.15 1.80 1.47 1.15 0.92 0.78 0.67 0.56 0.52 0.51 0.49 0.42 0.29
1.33 1.46 1.51 1.49 1.51 1.39 1.53 1.84 1.94 2.19 2.41 2.49 2.58 2.36 2.25 2.29 2.08 2.02 2.00 2.02 2.01 1.72 1.99 2.05 2.09 2.15 2.46 2.79 2.92 2.95 2.57 2.09 1.69 1.40 1.10 0.85 0.71 0.59 0.47 0.44 0.49 0.48 0.36
1.19 1.29 1.39 1.48 1.25 1.22 1.29 1.20 1.57 1.78 2.04 2.16 1.89 2.01 1.88 1.94 1.84 1.62 1.63 1.53 1.73 1.73 1.87 1.85 1.94 1.93 2.16 2.78 3.24 3.43 3.17 2.61 2.04 1.71 1.52 1.24 1.02 0.80 0.61 0.51 0.46 0.44 0.37
1.24 1.38 1.26 1.26 1.15 1.30 1.44 1.53 1.78 1.71 1.65 1.75 1.50 1.71 1.60 1.47 1.49 1.43 1.31 1.35 1.44 1.33 1.56 1.76 1.86 1.61 1.82 2.39 2.97 3.34 3.47 3.30 2.76 2.22 1.98 1.79 1.61 1.23 0.88 0.69 0.56 0.49 0.42
1.39 1.50 1.27 1.55 1.38 1.35 1.41 1.45 1.59 1.58 1.43 1.39 1.73 1.92 1.53 1.17 1.17 1.06 1.05 1.23 1.31 1.34 1.60 1.88 1.94 1.88 1.65 1.61 1.80 2.38 3.04 3.60 3.62 3.04 2.59 2.33 2.18 1.73 1.19 0.97 0.86 0.69 0.59
1.35 1.27 1.50 1.35 1.39 1.50 1.53 1.60 1.69 1.69 1.50 1.42 1.73 2.09 1.84 1.76 1.56 0.88 0.99 1.13 1.23 1.45 1.53 1.55 1.72 1.94 1.69 1.80 1.35 1.38 2.08 2.75 3.49 3.53 3.08 2.64 2.49 2.15 1.64 1.35 1.15 1.00 0.88
1.25 1.29 1.30 1.32 1.50 1.34 1.59 1.78 1.72 1.76 1.74 1.58 1.57 1.87 1.93 1.91 1.64 1.23 0.99 0.98 1.15 1.47 1.52 1.59 1.50 1.65 1.79 2.01 1.91 1.45 1.53 1.75 2.52 3.39 3.54 3.04 2.54 2.19 1.94 1.79 1.59 1.30 1.14
1.19 1.20 1.21 1.36 1.52 1.34 1.68 1.39 1.45 1.69 1.81 1.65 1.57 1.43 1.46 1.63 1.76 1.68 1.39 1.12 1.12 1.28 1.36 1.29 1.32 1.53 1.66 1.74 1.78 1.34 1.11 1.16 1.79 2.74 3.29 3.28 2.85 2.37 2.06 2.01 2.12 1.96 1.57
1.32 1.14 1.22 1.35 1.42 1.34 1.44 1.47 1.72 1.63 1.60 1.58 1.60 1.62 1.67 1.56 1.36 1.47 1.56 1.50 1.37 1.09 1.00 1.06 1.19 1.37 1.41 1.53 1.78 1.40 1.12 1.14 1.30 1.67 2.09 2.47 2.63 2.48 2.26 2.32 2.66 2.88 2.64
1.36 1.26 1.33 1.39 1.34 1.28 1.35 1.38 1.52 1.54 1.63 1.70 1.57 1.47 1.57 1.49 1.38 1.43 1.29 1.27 1.34 1.02 0.89 0.91 1.02 1.21 1.29 1.41 1.41 1.22 1.24 1.38 1.38 1.34 1.36 1.53 1.86 2.10 2.19 2.31 2.62 3.08 3.32
1.19 1.22 1.33 1.47 1.40 1.41 1.39 1.49 1.48 1.44 1.53 1.59 1.46 1.36 1.31 1.18 1.27 1.39 1.42 1.24 1.19 0.93 0.94 0.87 0.93 1.02 1.02 1.34 1.64 1.63 1.43 1.49 1.40 1.32 1.30 1.30 1.41 1.61 1.72 1.87 2.19 2.59 2.99
1.27 1.23 1.30 1.32 1.34 1.38 1.38 1.67 1.49 1.37 1.40 1.38 1.27 1.47 1.39 1.09 1.12 1.25 1.41 1.52 1.42 1.18 1.16 1.06 1.04 1.10 1.13 1.31 1.55 1.69 1.43 1.41 1.24 1.15 1.12 1.09 1.12 1.21 1.32 1.41 1.54 1.72 1.94
1.38 1.31 1.22 1.21 1.28 1.38 1.48 1.59 1.49 1.48 1.53 1.36 1.29 1.42 1.33 1.12 1.08 1.06 1.27 1.55 1.71 1.56 1.42 1.29 1.26 1.27 1.27 1.32 1.45 1.35 1.39 1.40 1.28 1.16 1.06 0.99 0.98 0.95 0.96 1.05 1.14 1.17 1.21
1.22 1.26 1.23 1.18 1.24 1.32 1.43 1.54 1.57 1.68 1.76 1.60 1.48 1.47 1.38 1.22 1.27 1.12 1.18 1.42 1.64 1.77 1.65 1.23 1.28 1.27 1.34 1.24 1.43 1.34 1.36 1.41 1.26 1.16 1.05 1.00 0.97 0.95 0.94 0.97 1.03 1.11 1.15
1.18 1.21 1.25 1.27 1.29 1.33 1.43 1.51 1.47 1.69 1.82 1.84 1.67 1.57 1.51 1.50 1.49 1.35 1.38 1.46 1.54 1.73 1.74 1.42 1.36 1.48 1.56 1.48 1.50 1.45 1.35 1.37 1.28 1.23 1.07 1.00 0.96 0.93 0.95 0.94 0.96 0.96 1.01
1.30 1.32 1.36 1.44 1.41 1.40 1.48 1.47 1.38 1.47 1.65 1.85 2.05 2.09 1.88 1.79 1.74 1.58 1.56 1.54 1.55 1.68 1.75 1.68 1.59 1.65 1.66 1.61 1.58 1.39 1.16 1.10 1.16 1.27 1.20 1.08 1.02 0.95 0.92 0.91 0.93 0.92 0.92
1.52 1.58 1.62 1.56 1.55 1.57 1.55 1.50 1.49 1.54 1.64 1.72 1.90 2.08 2.09 2.14 1.92 1.84 1.75 1.67 1.63 1.58 1.72 1.69 1.61 1.77 1.81 1.78 1.65 1.33 1.21 1.25 1.11 1.27 1.27 1.08 0.96 0.93 0.89 0.85 0.84 0.85 0.85
1.76 1.78 1.79 1.74 1.71 1.74 1.72 1.67 1.63 1.62 1.68 1.68 1.69 1.75 1.87 2.10 2.07 2.03 1.90 1.88 1.87 1.86 1.90 1.84 1.78 1.88 2.06 2.11 1.91 1.55 1.41 1.37 1.24 1.09 1.16 1.04 0.98 0.94 0.90 0.84 0.80 0.78 0.78
1.91 2.02 1.99 1.90 1.87 1.88 1.73 1.80 1.92 1.92 1.97 1.82 1.73 1.67 1.65 1.85 1.93 1.93 1.75 1.81 1.94 2.00 2.02 1.99 1.96 2.02 2.09 2.20 1.93 1.67 1.48 1.44 1.40 1.23 1.14 0.99 0.96 0.92 0.95 0.98 0.93 0.84 0.80
2.18 2.10 2.01 2.02 2.00 1.83 1.94 1.98 1.89 1.95 2.11 2.10 1.98 1.90 1.77 1.68 1.68 1.72 1.76 1.80 1.85 1.86 1.91 1.94 1.91 1.94 2.02 2.09 2.16 1.97 1.73 1.55 1.44 1.29 1.27 1.14 1.06 1.01 0.93 0.86 0.95 0.91 0.84
2.13 2.04 2.07 2.11 2.04 2.07 2.03 1.81 1.68 1.70 1.76 1.86 1.94 1.92 1.71 1.57 1.66 1.61 1.75 1.77 1.67 1.61 1.58 1.65 1.71 1.78 2.12 2.32 2.50 2.23 1.98 1.80 1.59 1.43 1.37 1.20 1.09 1.02 0.90 0.87 0.97 0.85 0.80
1.99 1.96 1.96 1.88 1.81 1.79 1.80 1.59 1.53 1.48 1.46 1.43 1.55 1.67 1.64 1.57 1.56 1.59 1.53 1.39 1.30 1.31 1.30 1.22 1.28 1.50 1.82 2.25 2.48 2.48 2.41 2.18 1.93 1.59 1.36 1.17 0.98 0.92 0.88 0.84 0.93 0.87 0.80
1.80 1.67 1.59 1.57 1.55 1.60 1.72 1.53 1.44 1.40 1.44 1.34 1.34 1.35 1.37 1.30 1.38 1.38 1.30 1.17 1.08 1.07 1.09 1.10 1.09 1.23 1.47 1.76 2.11 2.27 2.22 2.01 1.71 1.38 1.18 1.04 0.92 0.90 0.86 0.81 0.82 0.93 0.85
1.89 1.82 1.65 1.52 1.48 1.48 1.64 1.45 1.34 1.31 1.37 1.35 1.36 1.39 1.48 1.32 1.22 1.09 1.03 1.04 0.94 0.90 0.96 0.94 0.91 0.97 1.07 1.29 1.67 1.80 1.81 1.81 1.61 1.36 1.09 1.02 0.92 1.00 0.95 0.83 0.75 0.76 0.77

GEFSMA_prec_meanprecacc_222.txt.gz
Total_Precipitation_Accumulation
2.39 2.43 2.29 2.32 2.30 2.52 2.94 3.48 3.44 3.59 3.56 3.21 2.75 2.57 2.60 2.46 2.42 2.37 2.01 2.08 2.28 2.33 2.37 2.35 2.30 2.26 2.29 2.20 2.01 1.83 1.59 1.45 1.24 0.99 0.80 0.71 0.77 0.73 0.58 0.47 0.37 0.30 0.27
2.19 2.17 2.13 2.31 2.37 2.31 2.47 2.91 3.10 3.44 3.42 3.07 2.56 2.36 2.33 2.38 2.26 2.25 2.00 2.04 2.18 2.06 2.08 2.35 2.58 2.65 2.56 2.42 2.29 2.11 1.85 1.67 1.42 1.09 0.93 0.85 0.70 0.67 0.70 0.58 0.44 0.33 0.27
1.87 1.88 1.97 1.98 2.05 1.98 2.06 2.26 2.50 2.78 2.75 2.61 2.49 2.41 2.32 2.22 2.06 2.07 2.13 2.07 1.81 1.89 2.00 2.15 2.39 2.53 2.67 2.80 2.73 2.50 2.20 1.84 1.50 1.17 0.93 0.78 0.68 0.58 0.54 0.52 0.51 0.44 0.32
1.35 1.48 1.53 1.53 1.54 1.42 1.55 1.87 1.96 2.20 2.42 2.50 2.58 2.37 2.26 2.31 2.10 2.06 2.04 2.06 2.07 1.79 2.04 2.10 2.15 2.19 2.51 2.85 2.97 3.00 2.62 2.15 1.74 1.44 1.13 0.87 0.72 0.60 0.48 0.45 0.49 0.50 0.39
1.21 1.31 1.42 1.50 1.27 1.25 1.31 1.23 1.59 1.80 2.05 2.18 1.90 2.02 1.89 1.95 1.86 1.64 1.66 1.58 1.81 1.81 1.94 1.91 2.00 1.98 2.22 2.85 3.32 3.50 3.25 2.68 2.10 1.76 1.56 1.26 1.04 0.81 0.62 0.52 0.47 0.45 0.39
1.27 1.40 1.28 1.29 1.17 1.33 1.48 1.55 1.80 1.74 1.68 1.78 1.52 1.74 1.63 1.49 1.52 1.45 1.35 1.41 1.50 1.41 1.64 1.85 1.92 1.67 1.88 2.47 3.05 3.42 3.55 3.37 2.83 2.28 2.02 1.82 1.64 1.26 0.90 0.71 0.57 0.50 0.43
1.40 1.51 1.29 1.57 1.41 1.38 1.45 1.48 1.61 1.61 1.46 1.42 1.78 1.96 1.57 1.21 1.23 1.11 1.10 1.29 1.36 1.41 1.70 1.94 1.99 1.93 1.69 1.66 1.86 2.45 3.12 3.69 3.71 3.13 2.68 2.41 2.24 1.79 1.24 1.01 0.89 0.71 0.61
1.36 1.28 1.50 1.36 1.40 1.52 1.56 1.63 1.72 1.73 1.54 1.47 1.78 2.14 1.88 1.81 1.61 0.93 1.05 1.19 1.28 1.51 1.60 1.61 1.77 1.98 1.73 1.83 1.40 1.43 2.13 2.82 3.57 3.62 3.17 2.75 2.59 2.24 1.71 1.41 1.19 1.02 0.90
1.25 1.30 1.31 1.33 1.52 1.35 1.61 1.80 1.74 1.80 1.78 1.62 1.62 1.92 1.99 1.96 1.68 1.29 1.05 1.03 1.20 1.53 1.58 1.64 1.55 1.70 1.83 2.04 1.96 1.51 1.57 1.79 2.57 3.45 3.60 3.10 2.61 2.26 2.00 1.84 1.64 1.34 1.18
1.21 1.21 1.21 1.37 1.53 1.36 1.70 1.41 1.46 1.70 1.84 1.68 1.61 1.47 1.50 1.67 1.80 1.72 1.44 1.16 1.16 1.32 1.41 1.33 1.37 1.57 1.70 1.79 1.83 1.40 1.15 1.20 1.83 2.78 3.34 3.33 2.89 2.41 2.09 2.05 2.16 2.00 1.62
1.34 1.16 1.23 1.37 1.43 1.35 1.46 1.49 1.73 1.64 1.61 1.60 1.62 1.65 1.70 1.59 1.40 1.51 1.59 1.53 1.41 1.14 1.04 1.09 1.21 1.39 1.44 1.57 1.82 1.44 1.16 1.18 1.34 1.70 2.13 2.51 2.67 2.52 2.29 2.35 2.70 2.92 2.69
1.37 1.28 1.34 1.40 1.35 1.30 1.37 1.40 1.53 1.55 1.64 1.72 1.59 1.49 1.60 1.51 1.40 1.46 1.32 1.31 1.38 1.06 0.92 0.93 1.04 1.23 1.32 1.46 1.45 1.26 1.28 1.45 1.43 1.38 1.40 1.57 1.89 2.13 2.22 2.35 2.67 3.13 3.38
1.24 1.25 1.35 1.49 1.42 1.43 1.41 1.50 1.51 1.46 1.54 1.61 1.48 1.37 1.34 1.21 1.30 1.43 1.47 1.29 1.22 0.96 0.97 0.90 0.95 1.06 1.06 1.40 1.68 1.66 1.46 1.54 1.45 1.37 1.35 1.33 1.43 1.64 1.74 1.89 2.23 2.62 3.03
1.32 1.24 1.33 1.34 1.36 1.41 1.40 1.69 1.52 1.41 1.43 1.41 1.29 1.49 1.41 1.11 1.14 1.28 1.45 1.58 1.46 1.20 1.18 1.09 1.07 1.14 1.16 1.35 1.60 1.75 1.47 1.45 1.28 1.19 1.17 1.14 1.15 1.24 1.35 1.44 1.57 1.74 1.97
1.41 1.33 1.25 1.24 1.30 1.40 1.51 1.62 1.52 1.51 1.55 1.39 1.33 1.46 1.35 1.14 1.11 1.09 1.32 1.60 1.75 1.59 1.44 1.31 1.29 1.30 1.30 1.36 1.51 1.40 1.43 1.42 1.29 1.18 1.09 1.02 1.00 0.97 0.98 1.06 1.15 1.18 1.22
1.25 1.29 1.28 1.22 1.28 1.35 1.47 1.58 1.60 1.72 1.79 1.63 1.52 1.52 1.41 1.26 1.31 1.16 1.22 1.46 1.68 1.83 1.69 1.25 1.30 1.31 1.39 1.30 1.49 1.38 1.39 1.43 1.28 1.17 1.07 1.02 0.99 0.96 0.96 0.98 1.04 1.12 1.16
1.21 1.25 1.29 1.31 1.32 1.36 1.47 1.55 1.50 1.73 1.86 1.88 1.71 1.61 1.55 1.55 1.54 1.40 1.42 1.50 1.58 1.79 1.79 1.45 1.39 1.54 1.64 1.54 1.56 1.50 1.38 1.39 1.30 1.24 1.08 1.02 0.97 0.94 0.97 0.96 0.97 0.98 1.02
1.35 1.37 1.41 1.49 1.46 1.44 1.51 1.51 1.42 1.51 1.70 1.89 2.08 2.13 1.92 1.84 1.78 1.62 1.60 1.58 1.60 1.73 1.80 1.71 1.63 1.71 1.74 1.66 1.62 1.44 1.20 1.13 1.18 1.30 1.22 1.10 1.03 0.96 0.93 0.93 0.94 0.93 0.93
1.59 1.63 1.67 1.61 1.60 1.61 1.58 1.52 1.51 1.57 1.68 1.75 1.94 2.12 2.13 2.20 1.96 1.89 1.80 1.73 1.69 1.65 1.79 1.75 1.65 1.82 1.86 1.83 1.70 1.39 1.25 1.27 1.14 1.31 1.31 1.12 1.00 0.96 0.91 0.87 0.85 0.85 0.86
1.80 1.81 1.82 1.77 1.73 1.76 1.74 1.68 1.65 1.65 1.71 1.72 1.73 1.78 1.91 2.15 2.12 2.10 1.97 1.95 1.95 1.94 1.97 1.90 1.82 1.92 2.10 2.15 1.97 1.62 1.45 1.39 1.27 1.13 1.21 1.10 1.04 0.99 0.93 0.87 0.83 0.79 0.79
1.94 2.04 2.00 1.91 1.89 1.89 1.75 1.81 1.95 1.96 2.01 1.85 1.75 1.69 1.68 1.89 1.99 2.00 1.81 1.87 2.01 2.06 2.09 2.06 2.01 2.06 2.13 2.23 1.98 1.72 1.53 1.49 1.43 1.27 1.18 1.04 1.01 0.97 0.99 1.01 0.96 0.87 0.81
2.21 2.12 2.03 2.04 2.02 1.84 1.96 2.00 1.91 1.97 2.13 2.12 2.00 1.93 1.80 1.73 1.73 1.77 1.81 1.84 1.90 1.91 1.94 1.98 1.95 1.99 2.06 2.13 2.21 2.03 1.78 1.61 1.47 1.32 1.32 1.19 1.11 1.06 0.97 0.89 0.98 0.94 0.86
2.19 2.09 2.10 2.14 2.08 2.10 2.06 1.84 1.71 1.72 1.78 1.88 1.96 1.95 1.73 1.60 1.70 1.64 1.78 1.81 1.71 1.65 1.62 1.69 1.74 1.81 2.16 2.37 2.56 2.29 2.03 1.84 1.62 1.47 1.42 1.25 1.15 1.05 0.94 0.90 1.01 0.89 0.82
2.10 2.08 2.07 1.97 1.89 1.86 1.87 1.66 1.60 1.54 1.51 1.48 1.59 1.71 1.68 1.60 1.59 1.63 1.57 1.41 1.33 1.34 1.34 1.26 1.31 1.53 1.86 2.30 2.53 2.53 2.46 2.22 1.97 1.62 1.40 1.22 1.04 0.97 0.92 0.89 0.98 0.93 0.85
1.97 1.86 1.78 1.75 1.71 1.74 1.85 1.63 1.53 1.47 1.51 1.41 1.40 1.40 1.41 1.33 1.42 1.42 1.34 1.20 1.12 1.11 1.14 1.14 1.13 1.27 1.51 1.80 2.16 2.32 2.25 2.04 1.74 1.41 1.21 1.09 0.97 0.97 0.92 0.86 0.87 0.98 0.90
2.12 2.07 1.92 1.84 1.78 1.72 1.82 1.57 1.43 1.38 1.43 1.40 1.41 1.43 1.52 1.36 1.27 1.14 1.08 1.09 0.98 0.94 1.02 1.00 0.98 1.03 1.13 1.35 1.72 1.84 1.84 1.83 1.64 1.39 1.11 1.05 0.96 1.05 1.01 0.88 0.79 0.80 0.81

GEFSMA_prec_meanprecacc_228.txt.gz
Total_Precipitation_Accumulation
2.40 2.43 2.30 2.33 2.31 2.53 2.96 3.50 3.45 3.61 3.59 3.24 2.77 2.60 2.62 2.47 2.44 2.39 2.03 2.10 2.32 2.36 2.40 2.40 2.36 2.32 2.35 2.24 2.05 1.88 1.64 1.49 1.28 1.02 0.83 0.74 0.81 0.77 0.62 0.52 0.42 0.35 0.31
2.19 2.17 2.15 2.32 2.39 2.34 2.50 2.93 3.12 3.47 3.45 3.10 2.60 2.38 2.35 2.40 2.28 2.28 2.03 2.07 2.22 2.09 2.12 2.39 2.62 2.71 2.62 2.48 2.35 2.16 1.90 1.71 1.45 1.12 0.96 0.87 0.71 0.70 0.73 0.61 0.48 0.38 0.32
1.88 1.89 1.99 2.00 2.07 2.00 2.07 2.29 2.53 2.80 2.77 2.63 2.53 2.44 2.35 2.26 2.09 2.11 2.16 2.08 1.83 1.92 2.05 2.20 2.43 2.58 2.73 2.86 2.79 2.55 2.24 1.88 1.54 1.21 0.97 0.81 0.70 0.60 0.56 0.55 0.54 0.47 0.36
1.37 1.50 1.56 1.54 1.56 1.44 1.57 1.89 1.97 2.22 2.44 2.52 2.60 2.39 2.28 2.33 2.14 2.10 2.07 2.08 2.08 1.80 2.07 2.16 2.22 2.25 2.55 2.91 3.03 3.05 2.67 2.19 1.78 1.49 1.17 0.90 0.74 0.62 0.50 0.46 0.51 0.52 0.41
1.26 1.34 1.45 1.53 1.30 1.28 1.34 1.24 1.61 1.83 2.07 2.20 1.92 2.04 1.91 1.97 1.87 1.66 1.69 1.61 1.85 1.84 1.97 1.95 2.06 2.04 2.29 2.93 3.42 3.59 3.33 2.75 2.18 1.84 1.63 1.32 1.09 0.85 0.64 0.54 0.48 0.46 0.41
1.32 1.47 1.33 1.32 1.21 1.38 1.53 1.59 1.85 1.78 1.72 1.81 1.55 1.76 1.65 1.50 1.53 1.46 1.36 1.43 1.55 1.46 1.69 1.89 1.96 1.72 1.96 2.59 3.18 3.55 3.67 3.47 2.92 2.37 2.10 1.90 1.70 1.31 0.94 0.74 0.60 0.53 0.46
1.45 1.58 1.36 1.62 1.44 1.41 1.48 1.52 1.64 1.64 1.49 1.46 1.80 1.98 1.58 1.22 1.23 1.12 1.11 1.30 1.38 1.44 1.73 1.97 2.03 2.00 1.75 1.72 1.94 2.56 3.24 3.81 3.82 3.24 2.77 2.49 2.31 1.85 1.29 1.07 0.93 0.74 0.65
1.40 1.34 1.58 1.44 1.45 1.55 1.59 1.67 1.77 1.77 1.58 1.51 1.81 2.17 1.92 1.83 1.62 0.94 1.06 1.21 1.29 1.53 1.62 1.64 1.80 2.02 1.77 1.87 1.44 1.48 2.19 2.90 3.68 3.74 3.28 2.85 2.69 2.33 1.78 1.46 1.25 1.07 0.94
1.27 1.33 1.35 1.38 1.56 1.40 1.65 1.85 1.79 1.84 1.82 1.65 1.65 1.96 2.04 1.99 1.70 1.29 1.05 1.04 1.21 1.54 1.60 1.67 1.58 1.73 1.86 2.07 1.99 1.54 1.62 1.84 2.64 3.53 3.68 3.20 2.70 2.35 2.07 1.91 1.70 1.40 1.25
1.23 1.23 1.24 1.40 1.57 1.40 1.74 1.44 1.49 1.73 1.87 1.70 1.63 1.50 1.54 1.70 1.82 1.73 1.45 1.16 1.17 1.33 1.43 1.36 1.40 1.61 1.73 1.81 1.86 1.43 1.18 1.23 1.87 2.82 3.41 3.41 2.97 2.48 2.16 2.11 2.23 2.07 1.70
1.35 1.18 1.26 1.39 1.46 1.39 1.50 1.53 1.76 1.68 1.65 1.63 1.65 1.68 1.75 1.63 1.43 1.53 1.60 1.54 1.42 1.15 1.05 1.11 1.23 1.41 1.46 1.59 1.84 1.46 1.18 1.20 1.37 1.74 2.18 2.57 2.73 2.57 2.34 2.40 2.76 2.98 2.75
1.39 1.30 1.36 1.42 1.38 1.34 1.41 1.44 1.57 1.59 1.68 1.77 1.62 1.52 1.64 1.55 1.44 1.49 1.34 1.32 1.39 1.07 0.92 0.94 1.05 1.25 1.34 1.48 1.46 1.27 1.30 1.48 1.47 1.41 1.43 1.61 1.94 2.19 2.27 2.39 2.71 3.17 3.42
1.25 1.26 1.36 1.52 1.46 1.48 1.46 1.57 1.57 1.52 1.60 1.65 1.51 1.40 1.36 1.23 1.34 1.46 1.49 1.31 1.24 0.96 0.98 0.90 0.97 1.08 1.07 1.42 1.69 1.68 1.48 1.57 1.48 1.39 1.38 1.36 1.47 1.68 1.78 1.93 2.26 2.65 3.06
1.34 1.26 1.35 1.37 1.41 1.46 1.46 1.76 1.59 1.47 1.50 1.47 1.34 1.52 1.44 1.15 1.18 1.31 1.48 1.62 1.48 1.21 1.19 1.09 1.08 1.14 1.17 1.36 1.62 1.76 1.48 1.46 1.29 1.20 1.18 1.16 1.17 1.25 1.36 1.46 1.58 1.75 1.97
1.44 1.37 1.29 1.29 1.36 1.47 1.59 1.70 1.60 1.59 1.62 1.45 1.38 1.49 1.39 1.18 1.15 1.12 1.35 1.63 1.78 1.61 1.45 1.31 1.29 1.30 1.31 1.37 1.52 1.41 1.44 1.43 1.30 1.19 1.10 1.04 1.02 0.99 0.99 1.07 1.16 1.19 1.23
1.30 1.36 1.36 1.31 1.39 1.46 1.59 1.70 1.71 1.80 1.84 1.67 1.56 1.55 1.43 1.29 1.34 1.20 1.26 1.51 1.71 1.85 1.70 1.26 1.31 1.31 1.40 1.31 1.50 1.39 1.41 1.44 1.29 1.19 1.08 1.04 1.00 0.98 0.97 0.99 1.04 1.13 1.17
1.32 1.34 1.39 1.42 1.42 1.45 1.59 1.66 1.57 1.77 1.89 1.92 1.74 1.64 1.57 1.57 1.56 1.44 1.46 1.55 1.61 1.82 1.81 1.46 1.40 1.55 1.65 1.55 1.58 1.53 1.40 1.40 1.31 1.26 1.10 1.03 0.99 0.96 0.98 0.97 0.98 0.98 1.03
1.43 1.43 1.46 1.55 1.53 1.54 1.63 1.58 1.46 1.53 1.72 1.91 2.10 2.15 1.94 1.85 1.79 1.64 1.63 1.62 1.64 1.78 1.83 1.73 1.64 1.71 1.75 1.68 1.65 1.47 1.22 1.14 1.19 1.32 1.24 1.12 1.05 0.98 0.95 0.94 0.95 0.94 0.94
1.64 1.67 1.70 1.65 1.65 1.66 1.62 1.54 1.53 1.58 1.69 1.77 1.95 2.13 2.14 2.22 1.99 1.92 1.84 1.76 1.73 1.70 1.83 1.77 1.66 1.84 1.88 1.85 1.72 1.41 1.27 1.29 1.15 1.32 1.32 1.14 1.02 0.98 0.93 0.88 0.86 0.87 0.87
1.84 1.84 1.85 1.79 1.75 1.78 1.75 1.70 1.67 1.66 1.72 1.73 1.75 1.80 1.92 2.17 2.15 2.13 2.00 1.98 2.00 1.98 2.02 1.94 1.84 1.94 2.12 2.16 1.98 1.63 1.48 1.41 1.29 1.15 1.23 1.13 1.06 1.02 0.95 0.89 0.84 0.81 0.81
1.97 2.07 2.03 1.94 1.91 1.91 1.77 1.83 1.97 1.97 2.02 1.87 1.77 1.71 1.70 1.92 2.02 2.03 1.84 1.90 2.05 2.10 2.12 2.09 2.04 2.09 2.15 2.26 2.00 1.74 1.56 1.52 1.45 1.29 1.20 1.06 1.03 0.99 1.01 1.04 0.98 0.89 0.84
2.26 2.16 2.07 2.07 2.06 1.87 1.98 2.02 1.94 2.00 2.15 2.15 2.03 1.96 1.83 1.76 1.76 1.81 1.85 1.89 1.94 1.94 1.97 2.02 1.98 2.01 2.09 2.17 2.25 2.06 1.81 1.63 1.49 1.34 1.34 1.20 1.13 1.07 0.98 0.91 1.01 0.97 0.89
2.26 2.16 2.16 2.20 2.13 2.16 2.12 1.90 1.77 1.77 1.83 1.92 2.00 1.99 1.77 1.64 1.76 1.69 1.84 1.86 1.75 1.68 1.65 1.72 1.76 1.82 2.18 2.40 2.60 2.33 2.08 1.87 1.65 1.51 1.45 1.27 1.16 1.06 0.95 0.91 1.03 0.91 0.85
2.20 2.18 2.16 2.06 1.99 1.95 1.96 1.75 1.69 1.62 1.59 1.57 1.67 1.77 1.74 1.65 1.64 1.69 1.63 1.46 1.35 1.36 1.36 1.29 1.33 1.55 1.89 2.35 2.58 2.58 2.52 2.28 2.01 1.67 1.43 1.24 1.05 0.98 0.93 0.89 0.99 0.94 0.87
2.07 1.97 1.89 1.84 1.81 1.85 1.97 1.76 1.66 1.58 1.62 1.50 1.48 1.47 1.47 1.39 1.47 1.49 1.39 1.24 1.14 1.13 1.17 1.18 1.16 1.31 1.55 1.86 2.22 2.38 2.31 2.11 1.80 1.45 1.24 1.11 0.99 0.98 0.93 0.87 0.89 1.00 0.92
2.18 2.14 2.00 1.93 1.90 1.86 1.97 1.72 1.58 1.50 1.52 1.47 1.47 1.49 1.58 1.41 1.31 1.19 1.11 1.12 1.00 0.96 1.05 1.03 1.01 1.07 1.18 1.41 1.79 1.90 1.90 1.90 1.70 1.44 1.15 1.08 0.99 1.08 1.03 0.90 0.81 0.82 0.84

GEFSMA_prec_meanprecacc_234.txt.gz
Total_Precipitation_Accumulation
2.45 2.49 2.36 2.40 2.37 2.61 3.03 3.57 3.51 3.69 3.65 3.28 2.81 2.63 2.66 2.50 2.46 2.41 2.04 2.12 2.34 2.39 2.44 2.45 2.42 2.38 2.40 2.29 2.10 1.92 1.68 1.54 1.33 1.07 0.88 0.80 0.87 0.83 0.67 0.56 0.47 0.40 0.36
2.26 2.24 2.20 2.40 2.46 2.40 2.56 3.00 3.19 3.56 3.54 3.18 2.66 2.42 2.38 2.43 2.30 2.30 2.05 2.09 2.24 2.11 2.14 2.43 2.68 2.78 2.69 2.54 2.39 2.19 1.94 1.76 1.50 1.16 1.00 0.90 0.75 0.74 0.77 0.65 0.53 0.43 0.36
1.94 1.95 2.04 2.06 2.15 2.08 2.15 2.37 2.60 2.87 2.83 2.69 2.60 2.49 2.39 2.30 2.13 2.15 2.20 2.11 1.86 1.95 2.07 2.23 2.48 2.63 2.79 2.92 2.84 2.58 2.30 1.93 1.57 1.25 1.00 0.85 0.74 0.64 0.60 0.60 0.58 0.51 0.39
1.43 1.56 1.61 1.60 1.63 1.52 1.64 1.96 2.04 2.28 2.52 2.59 2.69 2.46 2.32 2.37 2.18 2.15 2.11 2.11 2.12 1.84 2.11 2.20 2.26 2.30 2.62 2.98 3.10 3.11 2.73 2.24 1.82 1.53 1.21 0.93 0.78 0.65 0.53 0.50 0.55 0.55 0.44
1.32 1.42 1.53 1.60 1.35 1.35 1.41 1.29 1.67 1.90 2.15 2.27 1.98 2.10 1.95 1.99 1.90 1.68 1.70 1.63 1.88 1.88 2.00 1.98 2.09 2.08 2.37 3.04 3.53 3.70 3.45 2.84 2.25 1.90 1.68 1.36 1.13 0.90 0.68 0.56 0.51 0.49 0.43
1.42 1.57 1.43 1.41 1.27 1.45 1.60 1.66 1.92 1.85 1.78 1.87 1.59 1.80 1.68 1.52 1.54 1.47 1.37 1.44 1.56 1.47 1.71 1.91 1.99 1.75 2.02 2.66 3.27 3.65 3.79 3.57 3.00 2.43 2.17 1.97 1.78 1.37 0.99 0.78 0.64 0.56 0.49
1.56 1.73 1.48 1.74 1.54 1.50 1.56 1.58 1.71 1.71 1.55 1.52 1.87 2.03 1.61 1.23 1.24 1.13 1.12 1.31 1.39 1.44 1.74 2.00 2.05 2.04 1.81 1.75 1.98 2.61 3.31 3.88 3.90 3.31 2.85 2.57 2.39 1.92 1.36 1.13 0.99 0.79 0.69
1.45 1.41 1.68 1.56 1.57 1.65 1.66 1.74 1.84 1.84 1.65 1.59 1.88 2.23 1.96 1.87 1.65 0.96 1.07 1.22 1.30 1.53 1.63 1.64 1.81 2.05 1.82 1.94 1.48 1.50 2.23 2.95 3.74 3.81 3.35 2.91 2.75 2.40 1.86 1.54 1.30 1.11 0.98
1.30 1.37 1.41 1.46 1.67 1.50 1.75 1.93 1.86 1.92 1.91 1.74 1.74 2.06 2.12 2.06 1.75 1.34 1.08 1.06 1.22 1.55 1.60 1.68 1.59 1.74 1.89 2.11 2.03 1.56 1.64 1.87 2.68 3.60 3.76 3.27 2.76 2.40 2.14 1.97 1.77 1.46 1.30
1.26 1.27 1.29 1.47 1.65 1.47 1.83 1.53 1.57 1.82 1.97 1.79 1.72 1.59 1.64 1.79 1.91 1.81 1.51 1.19 1.18 1.34 1.44 1.37 1.42 1.62 1.75 1.84 1.89 1.43 1.18 1.24 1.89 2.86 3.46 3.47 3.03 2.54 2.22 2.18 2.30 2.15 1.77
1.38 1.20 1.30 1.44 1.52 1.44 1.56 1.59 1.84 1.77 1.75 1.73 1.74 1.76 1.83 1.71 1.52 1.62 1.69 1.60 1.47 1.17 1.07 1.12 1.25 1.43 1.48 1.61 1.85 1.47 1.18 1.20 1.38 1.75 2.20 2.59 2.77 2.62 2.39 2.46 2.82 3.05 2.82
1.41 1.32 1.39 1.47 1.43 1.38 1.46 1.51 1.64 1.67 1.76 1.85 1.70 1.60 1.73 1.64 1.55 1.58 1.42 1.39 1.44 1.09 0.94 0.95 1.06 1.26 1.35 1.49 1.47 1.28 1.30 1.49 1.48 1.41 1.44 1.61 1.96 2.22 2.31 2.44 2.76 3.23 3.49
1.27 1.29 1.40 1.57 1.51 1.53 1.51 1.63 1.64 1.60 1.68 1.74 1.61 1.48 1.45 1.34 1.44 1.55 1.57 1.38 1.29 1.01 1.01 0.92 0.97 1.09 1.09 1.43 1.71 1.70 1.49 1.57 1.48 1.39 1.38 1.37 1.47 1.68 1.80 1.96 2.29 2.69 3.11
1.35 1.28 1.38 1.42 1.46 1.51 1.51 1.82 1.64 1.54 1.59 1.57 1.42 1.61 1.53 1.23 1.26 1.38 1.56 1.71 1.54 1.27 1.24 1.12 1.09 1.16 1.19 1.38 1.65 1.79 1.49 1.47 1.29 1.21 1.18 1.16 1.18 1.25 1.37 1.47 1.59 1.76 1.99
1.46 1.39 1.31 1.31 1.40 1.51 1.63 1.76 1.65 1.64 1.69 1.51 1.43 1.56 1.45 1.25 1.23 1.19 1.42 1.73 1.87 1.68 1.50 1.36 1.31 1.32 1.33 1.39 1.55 1.44 1.46 1.45 1.31 1.19 1.10 1.04 1.02 0.99 0.99 1.08 1.17 1.20 1.24
1.32 1.37 1.37 1.33 1.41 1.49 1.63 1.75 1.76 1.86 1.90 1.71 1.60 1.60 1.49 1.34 1.40 1.26 1.33 1.59 1.78 1.92 1.76 1.30 1.34 1.34 1.42 1.32 1.53 1.42 1.44 1.47 1.31 1.19 1.09 1.04 1.00 0.98 0.98 1.00 1.05 1.13 1.17
1.34 1.37 1.40 1.43 1.44 1.48 1.63 1.71 1.61 1.81 1.93 1.95 1.77 1.67 1.61 1.62 1.62 1.49 1.51 1.60 1.66 1.86 1.85 1.50 1.44 1.57 1.67 1.58 1.61 1.56 1.43 1.44 1.33 1.27 1.11 1.04 0.99 0.97 0.99 0.98 0.99 0.99 1.03
1.46 1.45 1.48 1.56 1.54 1.56 1.66 1.61 1.48 1.55 1.74 1.94 2.13 2.19 1.97 1.89 1.85 1.70 1.68 1.66 1.68 1.82 1.87 1.77 1.68 1.75 1.78 1.72 1.68 1.50 1.26 1.18 1.23 1.34 1.25 1.12 1.05 0.99 0.95 0.94 0.95 0.94 0.94
1.67 1.69 1.72 1.66 1.66 1.68 1.63 1.56 1.55 1.60 1.71 1.79 1.98 2.16 2.17 2.25 2.03 1.97 1.88 1.80 1.76 1.72 1.86 1.81 1.69 1.87 1.90 1.87 1.75 1.43 1.30 1.32 1.18 1.35 1.34 1.15 1.03 0.98 0.93 0.89 0.87 0.87 0.87
1.86 1.86 1.87 1.80 1.77 1.80 1.77 1.72 1.69 1.69 1.75 1.75 1.77 1.83 1.95 2.20 2.19 2.18 2.04 2.02 2.03 2.01 2.05 1.98 1.89 1.99 2.17 2.21 2.02 1.66 1.51 1.44 1.33 1.18 1.26 1.15 1.08 1.02 0.95 0.89 0.85 0.81 0.82
1.99 2.08 2.04 1.95 1.92 1.93 1.78 1.85 2.00 2.00 2.05 1.90 1.81 1.74 1.72 1.95 2.05 2.06 1.86 1.92 2.08 2.13 2.16 2.12 2.08 2.13 2.20 2.31 2.05 1.80 1.62 1.58 1.52 1.34 1.25 1.09 1.04 0.99 1.02 1.04 0.99 0.90 0.85
2.27 2.17 2.08 2.08 2.07 1.89 2.00 2.05 1.97 2.03 2.19 2.18 2.06 1.98 1.86 1.79 1.78 1.83 1.87 1.91 1.97 1.97 2.01 2.05 2.01 2.04 2.12 2.22 2.31 2.12 1.87 1.71 1.57 1.40 1.40 1.25 1.16 1.10 0.99 0.92 1.01 0.98 0.90
2.28 2.18 2.17 2.21 2.14 2.18 2.14 1.91 1.78 1.79 1.85 1.95 2.03 2.02 1.81 1.67 1.78 1.72 1.87 1.89 1.78 1.71 1.68 1.75 1.79 1.85 2.22 2.46 2.66 2.38 2.13 1.92 1.70 1.56 1.51 1.33 1.22 1.11 0.98 0.93 1.04 0.92 0.86
2.21 2.18 2.17 2.07 2.00 1.97 1.97 1.75 1.70 1.64 1.62 1.59 1.71 1.81 1.77 1.68 1.67 1.73 1.67 1.50 1.38 1.38 1.39 1.32 1.36 1.58 1.93 2.40 2.63 2.63 2.58 2.33 2.06 1.71 1.48 1.28 1.09 1.02 0.96 0.93 1.02 0.96 0.87
2.08 1.98 1.89 1.85 1.81 1.85 1.97 1.76 1.67 1.60 1.64 1.53 1.51 1.51 1.51 1.42 1.51 1.53 1.44 1.28 1.19 1.16 1.20 1.20 1.19 1.34 1.58 1.90 2.26 2.42 2.35 2.15 1.84 1.49 1.29 1.16 1.04 1.03 0.98 0.91 0.92 1.03 0.93
2.20 2.15 2.02 1.95 1.91 1.87 1.99 1.75 1.62 1.54 1.58 1.54 1.52 1.54 1.62 1.45 1.34 1.23 1.15 1.17 1.05 0.99 1.07 1.05 1.03 1.09 1.20 1.44 1.82 1.94 1.94 1.94 1.74 1.48 1.20 1.14 1.05 1.15 1.09 0.94 0.85 0.86 0.87

GEFSMA_prec_meanprecacc_240.txt.gz
Total_Precipitation_Accumulation
2.55 2.59 2.45 2.49 2.45 2.67 3.12 3.67 3.60 3.77 3.70 3.32 2.82 2.65 2.67 2.51 2.47 2.42 2.06 2.13 2.35 2.39 2.45 2.47 2.44 2.40 2.42 2.31 2.12 1.95 1.71 1.56 1.36 1.10 0.92 0.85 0.92 0.90 0.74 0.63 0.56 0.46 0.39
2.37 2.34 2.30 2.50 2.54 2.47 2.63 3.08 3.25 3.63 3.60 3.22 2.68 2.44 2.39 2.44 2.33 2.32 2.08 2.12 2.25 2.11 2.15 2.45 2.70 2.80 2.71 2.56 2.41 2.21 1.96 1.78 1.52 1.20 1.04 0.94 0.79 0.78 0.81 0.70 0.62 0.50 0.40
2.05 2.04 2.14 2.16 2.23 2.14 2.21 2.42 2.65 2.91 2.88 2.74 2.64 2.52 2.40 2.31 2.14 2.16 2.21 2.14 1.89 1.97 2.10 2.26 2.50 2.66 2.83 2.96 2.86 2.60 2.33 1.96 1.61 1.28 1.04 0.88 0.77 0.67 0.63 0.64 0.63 0.56 0.42
1.55 1.66 1.71 1.68 1.71 1.58 1.69 2.02 2.10 2.33 2.57 2.65 2.74 2.51 2.35 2.39 2.19 2.16 2.13 2.14 2.16 1.89 2.15 2.23 2.29 2.33 2.66 3.01 3.14 3.15 2.78 2.29 1.87 1.57 1.25 0.98 0.82 0.69 0.56 0.52 0.57 0.58 0.46
1.37 1.49 1.63 1.68 1.42 1.42 1.48 1.36 1.75 1.97 2.22 2.34 2.05 2.17 1.99 2.02 1.92 1.69 1.71 1.64 1.89 1.92 2.06 2.02 2.10 2.10 2.40 3.07 3.57 3.76 3.52 2.90 2.29 1.94 1.72 1.40 1.18 0.94 0.72 0.60 0.54 0.51 0.46
1.45 1.62 1.49 1.47 1.33 1.53 1.69 1.74 2.01 1.94 1.88 1.96 1.67 1.87 1.72 1.56 1.57 1.49 1.38 1.46 1.57 1.49 1.75 1.96 2.03 1.77 2.04 2.68 3.31 3.69 3.83 3.61 3.04 2.47 2.21 2.02 1.82 1.41 1.03 0.83 0.69 0.61 0.54
1.58 1.77 1.54 1.80 1.60 1.57 1.63 1.65 1.80 1.80 1.65 1.61 1.96 2.12 1.67 1.26 1.26 1.14 1.13 1.34 1.41 1.45 1.75 2.02 2.09 2.09 1.87 1.77 2.00 2.63 3.34 3.92 3.93 3.34 2.88 2.60 2.43 1.95 1.38 1.16 1.03 0.85 0.75
1.47 1.43 1.73 1.60 1.62 1.74 1.75 1.80 1.91 1.93 1.74 1.66 1.97 2.33 2.06 1.96 1.70 0.98 1.08 1.23 1.31 1.54 1.64 1.65 1.83 2.10 1.89 2.00 1.51 1.52 2.25 2.98 3.77 3.83 3.37 2.93 2.78 2.42 1.88 1.55 1.32 1.15 1.03
1.31 1.39 1.44 1.49 1.70 1.54 1.81 2.00 1.92 2.01 2.01 1.82 1.83 2.17 2.25 2.20 1.84 1.39 1.10 1.08 1.24 1.58 1.64 1.70 1.60 1.77 1.93 2.16 2.06 1.59 1.65 1.88 2.69 3.62 3.78 3.29 2.77 2.42 2.15 2.00 1.80 1.49 1.34
1.28 1.30 1.32 1.51 1.69 1.51 1.89 1.58 1.64 1.90 2.05 1.88 1.79 1.67 1.72 1.88 2.03 1.91 1.56 1.22 1.21 1.38 1.51 1.43 1.44 1.65 1.79 1.88 1.92 1.45 1.19 1.25 1.90 2.87 3.49 3.50 3.05 2.55 2.23 2.20 2.34 2.20 1.82
1.41 1.23 1.33 1.48 1.57 1.49 1.61 1.64 1.92 1.85 1.82 1.81 1.81 1.83 1.89 1.78 1.60 1.73 1.78 1.65 1.50 1.18 1.08 1.15 1.28 1.46 1.51 1.66 1.89 1.49 1.19 1.21 1.38 1.75 2.21 2.60 2.78 2.63 2.41 2.48 2.85 3.09 2.87
1.44 1.34 1.42 1.52 1.48 1.43 1.53 1.57 1.70 1.72 1.82 1.91 1.76 1.66 1.80 1.73 1.64 1.67 1.51 1.47 1.50 1.12 0.96 0.97 1.08 1.29 1.39 1.53 1.49 1.30 1.32 1.51 1.49 1.42 1.44 1.62 1.96 2.22 2.32 2.46 2.78 3.26 3.53
1.29 1.32 1.44 1.64 1.57 1.58 1.58 1.70 1.70 1.66 1.74 1.79 1.66 1.54 1.51 1.39 1.49 1.60 1.65 1.45 1.35 1.04 1.06 0.95 1.00 1.11 1.12 1.47 1.76 1.73 1.52 1.59 1.50 1.40 1.38 1.37 1.48 1.69 1.80 1.96 2.30 2.71 3.13
1.37 1.30 1.41 1.46 1.49 1.56 1.56 1.88 1.69 1.59 1.64 1.62 1.46 1.66 1.57 1.27 1.30 1.43 1.62 1.77 1.61 1.33 1.30 1.18 1.12 1.19 1.23 1.43 1.71 1.84 1.53 1.50 1.32 1.22 1.19 1.17 1.18 1.26 1.37 1.47 1.59 1.77 2.00
1.48 1.41 1.34 1.35 1.42 1.54 1.68 1.81 1.70 1.69 1.75 1.56 1.48 1.62 1.50 1.31 1.26 1.22 1.47 1.78 1.96 1.76 1.56 1.43 1.36 1.36 1.39 1.44 1.62 1.51 1.54 1.52 1.35 1.22 1.12 1.05 1.03 0.99 1.00 1.08 1.17 1.20 1.24
1.35 1.41 1.41 1.37 1.45 1.53 1.67 1.79 1.81 1.90 1.94 1.77 1.66 1.67 1.55 1.39 1.46 1.31 1.38 1.65 1.85 1.99 1.81 1.35 1.38 1.37 1.46 1.35 1.56 1.46 1.52 1.54 1.34 1.23 1.11 1.05 1.01 0.98 0.98 1.00 1.06 1.14 1.18
1.37 1.40 1.44 1.47 1.48 1.52 1.67 1.76 1.65 1.85 1.97 2.01 1.83 1.73 1.67 1.68 1.68 1.54 1.56 1.65 1.71 1.92 1.90 1.53 1.48 1.60 1.71 1.61 1.65 1.59 1.48 1.50 1.37 1.30 1.13 1.05 1.00 0.97 1.00 0.98 0.99 0.99 1.04
1.48 1.47 1.51 1.60 1.58 1.60 1.70 1.65 1.52 1.61 1.80 2.01 2.19 2.24 2.02 1.95 1.92 1.75 1.72 1.70 1.73 1.88 1.93 1.82 1.72 1.79 1.82 1.75 1.72 1.52 1.28 1.20 1.25 1.37 1.28 1.14 1.07 1.00 0.96 0.95 0.96 0.94 0.95
1.69 1.72 1.76 1.71 1.71 1.73 1.68 1.61 1.60 1.65 1.77 1.85 2.05 2.23 2.22 2.30 2.09 2.02 1.92 1.83 1.79 1.77 1.92 1.86 1.73 1.91 1.93 1.91 1.79 1.46 1.32 1.34 1.20 1.37 1.37 1.17 1.05 1.00 0.94 0.89 0.87 0.88 0.88
1.89 1.89 1.91 1.84 1.80 1.84 1.80 1.75 1.72 1.72 1.79 1.80 1.83 1.89 2.01 2.25 2.24 2.23 2.08 2.06 2.07 2.06 2.11 2.04 1.95 2.06 2.22 2.25 2.08 1.71 1.54 1.48 1.35 1.20 1.28 1.17 1.10 1.05 0.97 0.91 0.86 0.83 0.83
2.01 2.11 2.07 1.98 1.94 1.95 1.80 1.87 2.03 2.03 2.10 1.96 1.87 1.81 1.79 2.03 2.12 2.12 1.91 1.98 2.13 2.18 2.21 2.18 2.16 2.21 2.26 2.38 2.11 1.85 1.66 1.63 1.56 1.37 1.29 1.13 1.09 1.04 1.05 1.07 1.02 0.93 0.86
2.30 2.20 2.10 2.10 2.09 1.90 2.01 2.06 1.98 2.04 2.22 2.22 2.11 2.04 1.93 1.88 1.87 1.90 1.93 1.97 2.03 2.03 2.06 2.10 2.07 2.10 2.17 2.28 2.38 2.19 1.94 1.77 1.62 1.44 1.44 1.29 1.22 1.16 1.05 0.97 1.07 1.03 0.94
2.31 2.20 2.19 2.22 2.16 2.19 2.15 1.92 1.78 1.79 1.87 1.98 2.06 2.05 1.84 1.71 1.84 1.78 1.94 1.97 1.83 1.76 1.73 1.81 1.84 1.90 2.27 2.52 2.73 2.45 2.20 1.99 1.75 1.62 1.57 1.37 1.26 1.16 1.04 1.00 1.11 0.98 0.90
2.23 2.20 2.19 2.09 2.03 1.98 1.98 1.76 1.71 1.65 1.63 1.61 1.74 1.84 1.81 1.72 1.72 1.77 1.73 1.56 1.44 1.44 1.44 1.36 1.41 1.62 1.98 2.45 2.70 2.69 2.64 2.40 2.13 1.78 1.55 1.35 1.14 1.07 1.00 0.99 1.11 1.04 0.93
2.11 2.01 1.92 1.88 1.84 1.88 2.00 1.78 1.70 1.62 1.66 1.56 1.55 1.55 1.55 1.46 1.54 1.57 1.48 1.33 1.24 1.21 1.25 1.25 1.24 1.39 1.63 1.94 2.31 2.47 2.40 2.21 1.89 1.53 1.35 1.22 1.09 1.09 1.04 0.97 0.99 1.11 1.01
2.24 2.19 2.06 1.99 1.94 1.91 2.04 1.81 1.67 1.58 1.64 1.61 1.60 1.61 1.67 1.48 1.38 1.26 1.20 1.21 1.08 1.02 1.12 1.10 1.08 1.14 1.25 1.49 1.88 1.98 1.98 1.99 1.79 1.53 1.26 1.22 1.13 1.23 1.17 1.00 0.93 0.96 0.97

GEFSMA_prec_meanprecacc_246.txt.gz
Total_Precipitation_Accumulation
2.58 2.61 2.47 2.51 2.47 2.70 3.14 3.69 3.61 3.79 3.72 3.34 2.86 2.69 2.73 2.56 2.53 2.47 2.10 2.16 2.38 2.42 2.48 2.50 2.47 2.42 2.44 2.34 2.15 1.97 1.73 1.59 1.39 1.13 0.96 0.89 0.97 0.94 0.78 0.68 0.61 0.50 0.43
2.38 2.35 2.32 2.52 2.57 2.50 2.65 3.09 3.26 3.64 3.62 3.24 2.70 2.48 2.44 2.48 2.37 2.36 2.11 2.15 2.29 2.15 2.19 2.49 2.75 2.84 2.74 2.59 2.43 2.23 1.99 1.80 1.55 1.22 1.06 0.98 0.83 0.82 0.85 0.74 0.66 0.56 0.45
2.08 2.06 2.15 2.17 2.25 2.16 2.23 2.45 2.67 2.94 2.91 2.76 2.66 2.54 2.42 2.33 2.16 2.19 2.25 2.17 1.92 2.01 2.14 2.31 2.55 2.71 2.87 3.00 2.91 2.64 2.37 1.99 1.63 1.31 1.07 0.91 0.80 0.69 0.66 0.67 0.66 0.60 0.46
1.62 1.71 1.74 1.70 1.72 1.58 1.71 2.04 2.13 2.39 2.61 2.67 2.76 2.53 2.37 2.41 2.21 2.19 2.17 2.18 2.19 1.91 2.18 2.27 2.33 2.37 2.72 3.06 3.19 3.19 2.81 2.31 1.89 1.59 1.27 1.00 0.84 0.70 0.59 0.55 0.60 0.61 0.49
1.40 1.54 1.65 1.70 1.43 1.43 1.50 1.39 1.78 2.02 2.28 2.38 2.08 2.19 2.02 2.06 1.96 1.73 1.77 1.69 1.93 1.95 2.09 2.05 2.14 2.15 2.46 3.13 3.62 3.80 3.57 2.93 2.32 1.96 1.74 1.43 1.20 0.95 0.74 0.62 0.56 0.53 0.48
1.46 1.64 1.50 1.48 1.34 1.55 1.72 1.78 2.05 1.98 1.93 2.01 1.70 1.90 1.77 1.61 1.61 1.55 1.44 1.52 1.62 1.53 1.79 2.00 2.06 1.82 2.09 2.75 3.38 3.75 3.89 3.67 3.10 2.51 2.25 2.06 1.86 1.44 1.04 0.84 0.70 0.63 0.56
1.59 1.78 1.55 1.81 1.60 1.58 1.65 1.68 1.82 1.83 1.69 1.65 1.99 2.15 1.70 1.31 1.31 1.20 1.18 1.40 1.46 1.49 1.79 2.07 2.15 2.15 1.92 1.81 2.05 2.67 3.38 3.98 3.99 3.39 2.93 2.66 2.48 1.98 1.40 1.17 1.04 0.86 0.76
1.49 1.44 1.73 1.61 1.62 1.74 1.76 1.82 1.94 1.95 1.75 1.69 2.02 2.38 2.10 1.99 1.77 1.06 1.13 1.29 1.38 1.60 1.67 1.69 1.90 2.18 1.95 2.06 1.57 1.56 2.29 3.02 3.83 3.88 3.41 2.98 2.82 2.45 1.89 1.56 1.32 1.16 1.04
1.32 1.40 1.45 1.49 1.71 1.55 1.82 2.01 1.95 2.03 2.03 1.86 1.87 2.24 2.29 2.23 1.89 1.45 1.16 1.14 1.30 1.65 1.69 1.74 1.65 1.82 1.99 2.23 2.12 1.65 1.69 1.91 2.74 3.68 3.84 3.33 2.80 2.44 2.17 2.02 1.81 1.51 1.36
1.30 1.31 1.33 1.52 1.70 1.53 1.91 1.60 1.69 1.94 2.09 1.92 1.84 1.70 1.76 1.93 2.07 1.95 1.59 1.26 1.25 1.43 1.57 1.48 1.49 1.70 1.85 1.96 2.02 1.54 1.24 1.27 1.92 2.91 3.53 3.54 3.08 2.57 2.25 2.22 2.36 2.22 1.85
1.43 1.24 1.35 1.52 1.60 1.52 1.64 1.69 1.98 1.90 1.86 1.84 1.85 1.87 1.93 1.82 1.65 1.77 1.81 1.67 1.52 1.20 1.11 1.20 1.33 1.49 1.57 1.76 2.05 1.62 1.25 1.25 1.42 1.79 2.24 2.64 2.81 2.66 2.43 2.50 2.87 3.11 2.91
1.45 1.36 1.43 1.54 1.52 1.47 1.57 1.62 1.77 1.77 1.86 1.94 1.80 1.70 1.84 1.76 1.67 1.71 1.54 1.48 1.50 1.12 0.98 0.99 1.10 1.31 1.43 1.60 1.60 1.38 1.38 1.57 1.56 1.47 1.47 1.64 1.98 2.24 2.34 2.48 2.80 3.29 3.56
1.31 1.34 1.46 1.67 1.60 1.61 1.62 1.75 1.75 1.70 1.78 1.83 1.69 1.57 1.53 1.42 1.52 1.64 1.69 1.47 1.35 1.05 1.07 0.96 1.02 1.13 1.14 1.50 1.80 1.78 1.58 1.66 1.55 1.46 1.44 1.41 1.51 1.70 1.81 1.98 2.32 2.73 3.16
1.39 1.32 1.44 1.49 1.53 1.60 1.61 1.94 1.74 1.62 1.68 1.65 1.49 1.69 1.61 1.31 1.34 1.47 1.66 1.81 1.63 1.33 1.31 1.19 1.13 1.20 1.25 1.45 1.73 1.89 1.58 1.55 1.36 1.26 1.23 1.21 1.21 1.28 1.38 1.48 1.60 1.77 2.00
1.49 1.43 1.37 1.38 1.47 1.61 1.75 1.88 1.76 1.75 1.79 1.60 1.52 1.66 1.54 1.35 1.31 1.28 1.52 1.83 2.01 1.80 1.58 1.44 1.38 1.38 1.42 1.46 1.65 1.55 1.57 1.56 1.40 1.26 1.15 1.08 1.05 1.01 1.01 1.09 1.17 1.20 1.24
1.38 1.44 1.44 1.41 1.49 1.58 1.73 1.86 1.86 1.95 1.99 1.81 1.70 1.71 1.59 1.44 1.50 1.35 1.42 1.69 1.90 2.03 1.83 1.37 1.41 1.41 1.51 1.39 1.59 1.50 1.56 1.58 1.39 1.27 1.15 1.08 1.03 1.00 0.99 1.00 1.06 1.14 1.18
1.40 1.43 1.47 1.51 1.51 1.55 1.71 1.81 1.72 1.92 2.03 2.07 1.89 1.80 1.72 1.71 1.71 1.57 1.59 1.69 1.75 1.97 1.92 1.54 1.49 1.63 1.73 1.63 1.68 1.63 1.53 1.55 1.41 1.34 1.16 1.07 1.02 0.99 1.01 0.99 1.00 1.00 1.04
1.53 1.52 1.55 1.64 1.62 1.64 1.74 1.70 1.59 1.68 1.87 2.06 2.24 2.30 2.07 1.99 1.95 1.79 1.76 1.74 1.76 1.92 1.96 1.84 1.74 1.81 1.84 1.78 1.75 1.57 1.31 1.23 1.28 1.40 1.30 1.16 1.08 1.01 0.97 0.96 0.96 0.95 0.95
1.74 1.76 1.80 1.75 1.75 1.77 1.72 1.65 1.65 1.70 1.82 1.89 2.08 2.26 2.26 2.35 2.12 2.06 1.96 1.87 1.83 1.81 1.96 1.89 1.75 1.94 1.97 1.94 1.84 1.50 1.36 1.36 1.22 1.39 1.39 1.19 1.06 1.01 0.95 0.91 0.88 0.88 0.89
1.92 1.92 1.94 1.88 1.84 1.87 1.84 1.79 1.76 1.75 1.81 1.82 1.85 1.91 2.04 2.30 2.28 2.27 2.12 2.10 2.12 2.10 2.17 2.09 1.98 2.09 2.27 2.30 2.13 1.76 1.59 1.51 1.37 1.22 1.31 1.20 1.13 1.07 0.99 0.92 0.88 0.84 0.85
2.04 2.14 2.10 2.01 1.98 1.98 1.83 1.90 2.06 2.05 2.11 1.96 1.88 1.82 1.81 2.05 2.15 2.16 1.94 2.01 2.18 2.22 2.25 2.22 2.20 2.26 2.31 2.42 2.14 1.89 1.72 1.67 1.59 1.40 1.33 1.16 1.12 1.06 1.07 1.09 1.04 0.95 0.89
2.33 2.23 2.12 2.12 2.11 1.92 2.03 2.09 2.00 2.05 2.23 2.23 2.12 2.05 1.94 1.90 1.89 1.92 1.96 2.00 2.07 2.07 2.10 2.15 2.11 2.14 2.21 2.32 2.41 2.24 1.98 1.82 1.65 1.46 1.48 1.32 1.25 1.19 1.08 1.00 1.10 1.07 0.98
2.36 2.24 2.22 2.24 2.18 2.21 2.17 1.94 1.79 1.80 1.88 1.99 2.07 2.06 1.85 1.73 1.86 1.80 1.96 1.99 1.86 1.79 1.77 1.85 1.88 1.92 2.30 2.55 2.78 2.49 2.24 2.03 1.78 1.64 1.60 1.39 1.29 1.20 1.07 1.03 1.14 1.01 0.94
2.29 2.25 2.22 2.11 2.05 2.00 2.00 1.78 1.73 1.67 1.64 1.62 1.74 1.85 1.82 1.74 1.75 1.81 1.77 1.58 1.46 1.46 1.48 1.40 1.45 1.66 2.02 2.51 2.76 2.75 2.69 2.44 2.16 1.80 1.59 1.38 1.17 1.10 1.04 1.03 1.14 1.08 0.98
2.17 2.05 1.96 1.91 1.86 1.91 2.03 1.82 1.73 1.64 1.68 1.57 1.56 1.56 1.57 1.48 1.57 1.61 1.52 1.37 1.26 1.24 1.28 1.29 1.28 1.43 1.69 2.01 2.38 2.54 2.45 2.25 1.92 1.55 1.38 1.26 1.12 1.13 1.09 1.01 1.03 1.16 1.09
2.37 2.29 2.13 2.03 1.99 1.96 2.09 1.86 1.71 1.60 1.66 1.62 1.61 1.62 1.69 1.51 1.41 1.30 1.23 1.24 1.11 1.04 1.14 1.13 1.12 1.18 1.29 1.55 1.95 2.04 2.03 2.03 1.81 1.55 1.28 1.25 1.16 1.27 1.20 1.02 0.96 1.02 1.06